Wetterdaten: Dienstag, 28.04.2015
Datum Zeit Temp. Aussen +5cm Feuchte Auss Luftdruck Regen Sonnenschein Regendauer Solar Windben
28.04.2015 00:00 6,8 C 5,6 C 72 % 1010,1 hPa 0,0 l/m 0 min 0 min 0 W/m 12,6 km/h (3 Bft)
28.04.2015 00:02 6,8 C 5,6 C 72 % 1010,2 hPa 0,0 l/m 0 min 0 min 0 W/m 12,6 km/h (3 Bft)
28.04.2015 00:05 6,7 C 5,6 C 72 % 1010,3 hPa 0,0 l/m 0 min 0 min 0 W/m 18,8 km/h (3 Bft)
28.04.2015 00:06 6,7 C 5,6 C 72 % 1010,3 hPa 0,0 l/m 0 min 0 min 0 W/m 14,6 km/h (3 Bft)
28.04.2015 00:08 6,7 C 5,6 C 72 % 1010,2 hPa 0,0 l/m 0 min 0 min 0 W/m 16,7 km/h (3 Bft)
28.04.2015 00:10 6,7 C 5,6 C 72 % 1010,3 hPa 0,0 l/m 0 min 0 min 0 W/m 16,7 km/h (3 Bft)
28.04.2015 00:12 6,6 C 5,6 C 72 % 1010,3 hPa 0,0 l/m 0 min 0 min 0 W/m 23,0 km/h (4 Bft)
28.04.2015 00:14 6,6 C 5,6 C 72 % 1010,3 hPa 0,0 l/m 0 min 0 min 0 W/m 14,6 km/h (3 Bft)
28.04.2015 00:16 6,6 C 5,6 C 73 % 1010,3 hPa 0,0 l/m 0 min 0 min 0 W/m 20,9 km/h (4 Bft)
28.04.2015 00:18 6,5 C 5,6 C 73 % 1010,3 hPa 0,0 l/m 0 min 0 min 0 W/m 16,7 km/h (3 Bft)
28.04.2015 00:20 6,5 C 5,6 C 73 % 1010,3 hPa 0,0 l/m 0 min 0 min 0 W/m 14,6 km/h (3 Bft)
28.04.2015 00:22 6,4 C 5,6 C 73 % 1010,3 hPa 0,0 l/m 0 min 0 min 0 W/m 18,8 km/h (3 Bft)
28.04.2015 00:24 6,4 C 5,6 C 73 % 1010,3 hPa 0,0 l/m 0 min 0 min 0 W/m 18,8 km/h (3 Bft)
28.04.2015 00:26 6,4 C 5,6 C 73 % 1010,4 hPa 0,0 l/m 0 min 0 min 0 W/m 14,6 km/h (3 Bft)
28.04.2015 00:28 6,4 C 5,0 C 74 % 1010,4 hPa 0,0 l/m 0 min 0 min 0 W/m 12,6 km/h (3 Bft)
28.04.2015 00:30 6,4 C 5,0 C 74 % 1010,4 hPa 0,0 l/m 0 min 0 min 0 W/m 16,7 km/h (3 Bft)
28.04.2015 00:32 6,3 C 5,0 C 74 % 1010,4 hPa 0,0 l/m 0 min 0 min 0 W/m 14,6 km/h (3 Bft)
28.04.2015 00:34 6,3 C 5,0 C 74 % 1010,4 hPa 0,0 l/m 0 min 0 min 0 W/m 16,7 km/h (3 Bft)
28.04.2015 00:36 6,2 C 5,0 C 74 % 1010,4 hPa 0,0 l/m 0 min 0 min 0 W/m 14,6 km/h (3 Bft)
28.04.2015 00:38 6,2 C 5,0 C 74 % 1010,5 hPa 0,0 l/m 0 min 0 min 0 W/m 16,7 km/h (3 Bft)
28.04.2015 00:40 6,2 C 5,0 C 74 % 1010,4 hPa 0,0 l/m 0 min 0 min 0 W/m 16,7 km/h (3 Bft)
28.04.2015 00:42 6,2 C 5,0 C 74 % 1010,5 hPa 0,0 l/m 0 min 0 min 0 W/m 14,6 km/h (3 Bft)
28.04.2015 00:44 6,1 C 5,0 C 75 % 1010,5 hPa 0,0 l/m 0 min 0 min 0 W/m 20,9 km/h (4 Bft)
28.04.2015 00:46 6,1 C 5,0 C 75 % 1010,5 hPa 0,0 l/m 0 min 0 min 0 W/m 14,6 km/h (3 Bft)
28.04.2015 00:48 6,1 C 5,0 C 75 % 1010,5 hPa 0,0 l/m 0 min 0 min 0 W/m 14,6 km/h (3 Bft)
28.04.2015 00:50 6,0 C 5,0 C 75 % 1010,5 hPa 0,0 l/m 0 min 0 min 0 W/m 12,6 km/h (3 Bft)
28.04.2015 00:52 6,0 C 5,0 C 75 % 1010,6 hPa 0,0 l/m 0 min 0 min 0 W/m 16,7 km/h (3 Bft)
28.04.2015 00:54 5,9 C 5,0 C 75 % 1010,7 hPa 0,0 l/m 0 min 0 min 0 W/m 12,6 km/h (3 Bft)
28.04.2015 00:56 5,9 C 5,0 C 75 % 1010,6 hPa 0,0 l/m 0 min 0 min 0 W/m 16,7 km/h (3 Bft)
28.04.2015 00:58 5,9 C 5,0 C 75 % 1010,6 hPa 0,0 l/m 0 min 0 min 0 W/m 14,6 km/h (3 Bft)
28.04.2015 01:00 5,8 C 5,0 C 75 % 1010,6 hPa 0,0 l/m 0 min 0 min 0 W/m 14,6 km/h (3 Bft)
28.04.2015 01:02 5,8 C 5,0 C 75 % 1010,7 hPa 0,0 l/m 0 min 0 min 0 W/m 8,4 km/h (2 Bft)
28.04.2015 01:04 5,8 C 5,0 C 75 % 1010,7 hPa 0,0 l/m 0 min 0 min 0 W/m 14,6 km/h (3 Bft)
28.04.2015 01:06 5,8 C 5,0 C 76 % 1010,7 hPa 0,0 l/m 0 min 0 min 0 W/m 12,6 km/h (3 Bft)
28.04.2015 01:08 5,8 C 5,0 C 76 % 1010,7 hPa 0,0 l/m 0 min 0 min 0 W/m 12,6 km/h (3 Bft)
28.04.2015 01:10 5,7 C 5,0 C 76 % 1010,7 hPa 0,0 l/m 0 min 0 min 0 W/m 10,5 km/h (2 Bft)
28.04.2015 01:12 5,7 C 5,0 C 76 % 1010,8 hPa 0,0 l/m 0 min 0 min 0 W/m 10,5 km/h (2 Bft)
28.04.2015 01:14 5,7 C 5,0 C 76 % 1010,8 hPa 0,0 l/m 0 min 0 min 0 W/m 10,5 km/h (2 Bft)
28.04.2015 01:16 5,7 C 5,0 C 76 % 1010,8 hPa 0,0 l/m 0 min 0 min 0 W/m 8,4 km/h (2 Bft)
28.04.2015 01:18 5,7 C 5,0 C 76 % 1010,8 hPa 0,0 l/m 0 min 0 min 0 W/m 6,3 km/h (2 Bft)
28.04.2015 01:20 5,6 C 5,0 C 77 % 1010,8 hPa 0,0 l/m 0 min 0 min 0 W/m 4,2 km/h (1 Bft)
28.04.2015 01:22 5,6 C 5,0 C 77 % 1010,8 hPa 0,0 l/m 0 min 0 min 0 W/m 6,3 km/h (2 Bft)
28.04.2015 01:24 5,6 C 5,0 C 77 % 1010,8 hPa 0,0 l/m 0 min 0 min 0 W/m 4,2 km/h (1 Bft)
28.04.2015 01:26 5,6 C 5,0 C 77 % 1010,9 hPa 0,0 l/m 0 min 0 min 0 W/m 4,2 km/h (1 Bft)
28.04.2015 01:28 5,5 C 4,4 C 77 % 1010,9 hPa 0,0 l/m 0 min 0 min 0 W/m 6,3 km/h (2 Bft)
28.04.2015 01:30 5,5 C 4,4 C 77 % 1011,0 hPa 0,0 l/m 0 min 0 min 0 W/m 8,4 km/h (2 Bft)
28.04.2015 01:32 5,4 C 4,4 C 77 % 1011,0 hPa 0,0 l/m 0 min 0 min 0 W/m 10,5 km/h (2 Bft)
28.04.2015 01:34 5,4 C 4,4 C 77 % 1011,1 hPa 0,0 l/m 0 min 0 min 0 W/m 10,5 km/h (2 Bft)
28.04.2015 01:36 5,4 C 4,4 C 77 % 1011,1 hPa 0,0 l/m 0 min 0 min 0 W/m 6,3 km/h (2 Bft)
28.04.2015 01:38 5,3 C 4,4 C 78 % 1011,1 hPa 0,0 l/m 0 min 0 min 0 W/m 8,4 km/h (2 Bft)
28.04.2015 01:40 5,3 C 4,4 C 78 % 1011,1 hPa 0,0 l/m 0 min 0 min 0 W/m 8,4 km/h (2 Bft)
28.04.2015 01:42 5,2 C 4,4 C 78 % 1011,2 hPa 0,0 l/m 0 min 0 min 0 W/m 6,3 km/h (2 Bft)
28.04.2015 01:44 5,2 C 4,4 C 78 % 1011,1 hPa 0,0 l/m 0 min 0 min 0 W/m 10,5 km/h (2 Bft)
28.04.2015 01:46 5,1 C 4,4 C 78 % 1011,2 hPa 0,0 l/m 0 min 0 min 0 W/m 8,4 km/h (2 Bft)
28.04.2015 01:48 5,1 C 4,4 C 79 % 1011,2 hPa 0,0 l/m 0 min 0 min 0 W/m 8,4 km/h (2 Bft)
28.04.2015 01:50 5,0 C 4,4 C 79 % 1011,2 hPa 0,0 l/m 0 min 0 min 0 W/m 6,3 km/h (2 Bft)
28.04.2015 01:52 5,0 C 4,4 C 79 % 1011,2 hPa 0,0 l/m 0 min 0 min 0 W/m 8,4 km/h (2 Bft)
28.04.2015 01:54 4,9 C 4,4 C 79 % 1011,2 hPa 0,0 l/m 0 min 0 min 0 W/m 8,4 km/h (2 Bft)
28.04.2015 01:56 4,9 C 4,4 C 79 % 1011,2 hPa 0,0 l/m 0 min 0 min 0 W/m 6,3 km/h (2 Bft)
28.04.2015 01:58 4,9 C 4,4 C 79 % 1011,3 hPa 0,0 l/m 0 min 0 min 0 W/m 6,3 km/h (2 Bft)
28.04.2015 02:00 4,8 C 4,4 C 79 % 1011,3 hPa 0,0 l/m 0 min 0 min 0 W/m 6,3 km/h (2 Bft)
28.04.2015 02:02 4,8 C 4,4 C 79 % 1011,3 hPa 0,0 l/m 0 min 0 min 0 W/m 6,3 km/h (2 Bft)
28.04.2015 02:04 4,8 C 4,4 C 79 % 1011,2 hPa 0,0 l/m 0 min 0 min 0 W/m 8,4 km/h (2 Bft)
28.04.2015 02:06 4,7 C 4,4 C 79 % 1011,2 hPa 0,0 l/m 0 min 0 min 0 W/m 6,3 km/h (2 Bft)
28.04.2015 02:08 4,7 C 4,4 C 79 % 1011,2 hPa 0,0 l/m 0 min 0 min 0 W/m 4,2 km/h (1 Bft)
28.04.2015 02:10 4,7 C 4,4 C 80 % 1011,3 hPa 0,0 l/m 0 min 0 min 0 W/m 4,2 km/h (1 Bft)
28.04.2015 02:12 4,7 C 4,4 C 80 % 1011,2 hPa 0,0 l/m 0 min 0 min 0 W/m 4,2 km/h (1 Bft)
28.04.2015 02:14 4,6 C 4,4 C 80 % 1011,2 hPa 0,0 l/m 0 min 0 min 0 W/m 4,2 km/h (1 Bft)
28.04.2015 02:16 4,6 C 4,4 C 80 % 1011,2 hPa 0,0 l/m 0 min 0 min 0 W/m 6,3 km/h (2 Bft)
28.04.2015 02:18 4,6 C 4,4 C 80 % 1011,2 hPa 0,0 l/m 0 min 0 min 0 W/m 6,3 km/h (2 Bft)
28.04.2015 02:20 4,5 C 3,9 C 80 % 1011,2 hPa 0,0 l/m 0 min 0 min 0 W/m 6,3 km/h (2 Bft)
28.04.2015 02:22 4,5 C 3,9 C 80 % 1011,2 hPa 0,0 l/m 0 min 0 min 0 W/m 6,3 km/h (2 Bft)
28.04.2015 02:24 4,4 C 3,9 C 80 % 1011,1 hPa 0,0 l/m 0 min 0 min 0 W/m 6,3 km/h (2 Bft)
28.04.2015 02:26 4,4 C 3,9 C 80 % 1011,2 hPa 0,0 l/m 0 min 0 min 0 W/m 6,3 km/h (2 Bft)
28.04.2015 02:28 4,4 C 3,9 C 80 % 1011,2 hPa 0,0 l/m 0 min 0 min 0 W/m 8,4 km/h (2 Bft)
28.04.2015 02:30 4,3 C 3,9 C 80 % 1011,2 hPa 0,0 l/m 0 min 0 min 0 W/m 6,3 km/h (2 Bft)
28.04.2015 02:32 4,3 C 3,9 C 80 % 1011,1 hPa 0,0 l/m 0 min 0 min 0 W/m 6,3 km/h (2 Bft)
28.04.2015 02:34 4,3 C 3,9 C 80 % 1011,2 hPa 0,0 l/m 0 min 0 min 0 W/m 4,2 km/h (1 Bft)
28.04.2015 02:36 4,2 C 3,9 C 80 % 1011,2 hPa 0,0 l/m 0 min 0 min 0 W/m 6,3 km/h (2 Bft)
28.04.2015 02:38 4,2 C 3,9 C 80 % 1011,2 hPa 0,0 l/m 0 min 0 min 0 W/m 6,3 km/h (2 Bft)
28.04.2015 02:40 4,2 C 3,9 C 80 % 1011,2 hPa 0,0 l/m 0 min 0 min 0 W/m 6,3 km/h (2 Bft)
28.04.2015 02:42 4,1 C 3,9 C 80 % 1011,1 hPa 0,0 l/m 0 min 0 min 0 W/m 4,2 km/h (1 Bft)
28.04.2015 02:44 4,1 C 3,9 C 81 % 1011,1 hPa 0,0 l/m 0 min 0 min 0 W/m 4,2 km/h (1 Bft)
28.04.2015 02:46 4,1 C 3,9 C 81 % 1011,1 hPa 0,0 l/m 0 min 0 min 0 W/m 6,3 km/h (2 Bft)
28.04.2015 02:48 4,0 C 3,9 C 81 % 1011,1 hPa 0,0 l/m 0 min 0 min 0 W/m 6,3 km/h (2 Bft)
28.04.2015 02:50 4,0 C 3,9 C 81 % 1011,2 hPa 0,0 l/m 0 min 0 min 0 W/m 4,2 km/h (1 Bft)
28.04.2015 02:52 3,9 C 3,9 C 81 % 1011,2 hPa 0,0 l/m 0 min 0 min 0 W/m 4,2 km/h (1 Bft)
28.04.2015 02:54 3,9 C 3,9 C 81 % 1011,2 hPa 0,0 l/m 0 min 0 min 0 W/m 4,2 km/h (1 Bft)
28.04.2015 02:56 3,9 C 3,9 C 81 % 1011,1 hPa 0,0 l/m 0 min 0 min 0 W/m 4,2 km/h (1 Bft)
28.04.2015 02:58 3,9 C 3,9 C 81 % 1011,1 hPa 0,0 l/m 0 min 0 min 0 W/m 4,2 km/h (1 Bft)
28.04.2015 03:00 3,8 C 3,9 C 81 % 1011,1 hPa 0,0 l/m 0 min 0 min 0 W/m 2,1 km/h (1 Bft)
28.04.2015 03:02 3,8 C 3,9 C 81 % 1011,1 hPa 0,0 l/m 0 min 0 min 0 W/m 4,2 km/h (1 Bft)
28.04.2015 03:04 3,8 C 3,9 C 81 % 1011,1 hPa 0,0 l/m 0 min 0 min 0 W/m 4,2 km/h (1 Bft)
28.04.2015 03:06 3,7 C 3,9 C 82 % 1011,1 hPa 0,0 l/m 0 min 0 min 0 W/m 4,2 km/h (1 Bft)
28.04.2015 03:08 3,7 C 3,3 C 82 % 1011,1 hPa 0,0 l/m 0 min 0 min 0 W/m 2,1 km/h (1 Bft)
28.04.2015 03:10 3,7 C 3,3 C 82 % 1011,1 hPa 0,0 l/m 0 min 0 min 0 W/m 4,2 km/h (1 Bft)
28.04.2015 03:12 3,7 C 3,3 C 82 % 1011,1 hPa 0,0 l/m 0 min 0 min 0 W/m 4,2 km/h (1 Bft)
28.04.2015 03:14 3,6 C 3,3 C 82 % 1011,1 hPa 0,0 l/m 0 min 0 min 0 W/m 4,2 km/h (1 Bft)
28.04.2015 03:16 3,6 C 3,3 C 82 % 1011,2 hPa 0,0 l/m 0 min 0 min 0 W/m 4,2 km/h (1 Bft)
28.04.2015 03:18 3,6 C 3,3 C 82 % 1011,2 hPa 0,0 l/m 0 min 0 min 0 W/m 4,2 km/h (1 Bft)
28.04.2015 03:20 3,5 C 3,3 C 82 % 1011,2 hPa 0,0 l/m 0 min 0 min 0 W/m 4,2 km/h (1 Bft)
28.04.2015 03:22 3,5 C 3,3 C 82 % 1011,2 hPa 0,0 l/m 0 min 0 min 0 W/m 4,2 km/h (1 Bft)
28.04.2015 03:24 3,4 C 3,3 C 82 % 1011,2 hPa 0,0 l/m 0 min 0 min 0 W/m 4,2 km/h (1 Bft)
28.04.2015 03:26 3,4 C 3,3 C 82 % 1011,2 hPa 0,0 l/m 0 min 0 min 0 W/m 4,2 km/h (1 Bft)
28.04.2015 03:28 3,4 C 3,3 C 83 % 1011,2 hPa 0,0 l/m 0 min 0 min 0 W/m 4,2 km/h (1 Bft)
28.04.2015 03:30 3,3 C 3,3 C 83 % 1011,2 hPa 0,0 l/m 0 min 0 min 0 W/m 2,1 km/h (1 Bft)
28.04.2015 03:32 3,3 C 3,3 C 83 % 1011,2 hPa 0,0 l/m 0 min 0 min 0 W/m 2,1 km/h (1 Bft)
28.04.2015 03:34 3,3 C 3,9 C 83 % 1011,2 hPa 0,0 l/m 0 min 0 min 0 W/m 4,2 km/h (1 Bft)
28.04.2015 03:36 3,3 C 3,9 C 83 % 1011,2 hPa 0,0 l/m 0 min 0 min 0 W/m 2,1 km/h (1 Bft)
28.04.2015 03:38 3,3 C 3,3 C 83 % 1011,2 hPa 0,0 l/m 0 min 0 min 0 W/m 4,2 km/h (1 Bft)
28.04.2015 03:40 3,2 C 3,3 C 83 % 1011,2 hPa 0,0 l/m 0 min 0 min 0 W/m 4,2 km/h (1 Bft)
28.04.2015 03:42 3,2 C 3,3 C 83 % 1011,2 hPa 0,0 l/m 0 min 0 min 0 W/m 4,2 km/h (1 Bft)
28.04.2015 03:44 3,2 C 3,3 C 84 % 1011,3 hPa 0,0 l/m 0 min 0 min 0 W/m 6,3 km/h (2 Bft)
28.04.2015 03:46 3,2 C 3,3 C 84 % 1011,2 hPa 0,0 l/m 0 min 0 min 0 W/m 4,2 km/h (1 Bft)
28.04.2015 03:48 3,1 C 3,3 C 84 % 1011,3 hPa 0,0 l/m 0 min 0 min 0 W/m 4,2 km/h (1 Bft)
28.04.2015 03:50 3,1 C 3,3 C 84 % 1011,3 hPa 0,0 l/m 0 min 0 min 0 W/m 4,2 km/h (1 Bft)
28.04.2015 03:52 3,1 C 3,3 C 84 % 1011,3 hPa 0,0 l/m 0 min 0 min 0 W/m 4,2 km/h (1 Bft)
28.04.2015 03:54 3,1 C 3,3 C 84 % 1011,3 hPa 0,0 l/m 0 min 0 min 0 W/m 2,1 km/h (1 Bft)
28.04.2015 03:56 3,1 C 3,3 C 84 % 1011,3 hPa 0,0 l/m 0 min 0 min 0 W/m 4,2 km/h (1 Bft)
28.04.2015 03:58 3,0 C 3,3 C 84 % 1011,3 hPa 0,0 l/m 0 min 0 min 0 W/m 4,2 km/h (1 Bft)
28.04.2015 04:00 3,0 C 3,3 C 84 % 1011,3 hPa 0,0 l/m 0 min 0 min 0 W/m 4,2 km/h (1 Bft)
28.04.2015 04:05 2,9 C 3,3 C 84 % 1011,4 hPa 0,0 l/m 0 min 0 min 0 W/m 4,2 km/h (1 Bft)
28.04.2015 04:06 2,9 C 3,3 C 84 % 1011,4 hPa 0,0 l/m 0 min 0 min 0 W/m 4,2 km/h (1 Bft)
28.04.2015 04:08 2,9 C 3,3 C 84 % 1011,4 hPa 0,0 l/m 0 min 0 min 0 W/m 2,1 km/h (1 Bft)
28.04.2015 04:13 2,8 C 2,8 C 84 % 1011,4 hPa 0,0 l/m 0 min 0 min 0 W/m 4,2 km/h (1 Bft)
28.04.2015 04:14 2,8 C 2,8 C 84 % 1011,4 hPa 0,0 l/m 0 min 0 min 0 W/m 2,1 km/h (1 Bft)
28.04.2015 04:16 2,7 C 2,8 C 84 % 1011,5 hPa 0,0 l/m 0 min 0 min 0 W/m 2,1 km/h (1 Bft)
28.04.2015 04:18 2,7 C 2,8 C 85 % 1011,5 hPa 0,0 l/m 0 min 0 min 0 W/m 4,2 km/h (1 Bft)
28.04.2015 04:20 2,7 C 2,8 C 85 % 1011,6 hPa 0,0 l/m 0 min 0 min 0 W/m 2,1 km/h (1 Bft)
28.04.2015 04:22 2,7 C 2,8 C 85 % 1011,6 hPa 0,0 l/m 0 min 0 min 0 W/m 4,2 km/h (1 Bft)
28.04.2015 04:24 2,6 C 2,8 C 85 % 1011,5 hPa 0,0 l/m 0 min 0 min 0 W/m 2,1 km/h (1 Bft)
28.04.2015 04:26 2,6 C 2,8 C 85 % 1011,5 hPa 0,0 l/m 0 min 0 min 0 W/m 2,1 km/h (1 Bft)
28.04.2015 04:28 2,6 C 2,8 C 85 % 1011,5 hPa 0,0 l/m 0 min 0 min 0 W/m 2,1 km/h (1 Bft)
28.04.2015 04:30 2,6 C 2,8 C 85 % 1011,5 hPa 0,0 l/m 0 min 0 min 0 W/m 4,2 km/h (1 Bft)
28.04.2015 04:32 2,5 C 2,8 C 85 % 1011,5 hPa 0,0 l/m 0 min 0 min 0 W/m 2,1 km/h (1 Bft)
28.04.2015 04:34 2,5 C 2,8 C 85 % 1011,5 hPa 0,0 l/m 0 min 0 min 0 W/m 2,1 km/h (1 Bft)
28.04.2015 04:36 2,4 C 2,8 C 85 % 1011,5 hPa 0,0 l/m 0 min 0 min 0 W/m 2,1 km/h (1 Bft)
28.04.2015 04:38 2,4 C 2,8 C 85 % 1011,6 hPa 0,0 l/m 0 min 0 min 0 W/m 2,1 km/h (1 Bft)
28.04.2015 04:40 2,4 C 2,8 C 85 % 1011,6 hPa 0,0 l/m 0 min 0 min 0 W/m 4,2 km/h (1 Bft)
28.04.2015 04:42 2,4 C 2,8 C 85 % 1011,6 hPa 0,0 l/m 0 min 0 min 0 W/m 4,2 km/h (1 Bft)
28.04.2015 04:44 2,3 C 2,8 C 85 % 1011,7 hPa 0,0 l/m 0 min 0 min 0 W/m 2,1 km/h (1 Bft)
28.04.2015 04:46 2,3 C 2,8 C 85 % 1011,6 hPa 0,0 l/m 0 min 0 min 0 W/m 2,1 km/h (1 Bft)
28.04.2015 04:48 2,3 C 2,8 C 85 % 1011,7 hPa 0,0 l/m 0 min 0 min 0 W/m 2,1 km/h (1 Bft)
28.04.2015 04:50 2,3 C 2,8 C 85 % 1011,7 hPa 0,0 l/m 0 min 0 min 0 W/m 2,1 km/h (1 Bft)
28.04.2015 04:52 2,2 C 2,8 C 85 % 1011,8 hPa 0,0 l/m 0 min 0 min 0 W/m 4,2 km/h (1 Bft)
28.04.2015 04:54 2,2 C 2,8 C 85 % 1011,7 hPa 0,0 l/m 0 min 0 min 0 W/m 2,1 km/h (1 Bft)
28.04.2015 04:56 2,2 C 2,8 C 85 % 1011,7 hPa 0,0 l/m 0 min 0 min 0 W/m 2,1 km/h (1 Bft)
28.04.2015 04:58 2,2 C 2,8 C 85 % 1011,8 hPa 0,0 l/m 0 min 0 min 0 W/m 2,1 km/h (1 Bft)
28.04.2015 05:00 2,2 C 2,8 C 86 % 1011,8 hPa 0,0 l/m 0 min 0 min 0 W/m 4,2 km/h (1 Bft)
28.04.2015 05:02 2,1 C 2,8 C 86 % 1011,7 hPa 0,0 l/m 0 min 0 min 0 W/m 4,2 km/h (1 Bft)
28.04.2015 05:04 2,1 C 2,8 C 86 % 1011,7 hPa 0,0 l/m 0 min 0 min 0 W/m 4,2 km/h (1 Bft)
28.04.2015 05:06 2,1 C 2,8 C 86 % 1011,6 hPa 0,0 l/m 0 min 0 min 0 W/m 2,1 km/h (1 Bft)
28.04.2015 05:08 2,1 C 2,8 C 86 % 1011,7 hPa 0,0 l/m 0 min 0 min 0 W/m 2,1 km/h (1 Bft)
28.04.2015 05:10 2,0 C 2,8 C 86 % 1011,7 hPa 0,0 l/m 0 min 0 min 0 W/m 4,2 km/h (1 Bft)
28.04.2015 05:12 2,0 C 2,8 C 86 % 1011,7 hPa 0,0 l/m 0 min 0 min 0 W/m 4,2 km/h (1 Bft)
28.04.2015 05:14 2,0 C 2,8 C 86 % 1011,8 hPa 0,0 l/m 0 min 0 min 0 W/m 2,1 km/h (1 Bft)
28.04.2015 05:16 1,9 C 2,8 C 86 % 1011,8 hPa 0,0 l/m 0 min 0 min 0 W/m 2,1 km/h (1 Bft)
28.04.2015 05:18 1,9 C 2,8 C 86 % 1011,8 hPa 0,0 l/m 0 min 0 min 0 W/m 2,1 km/h (1 Bft)
28.04.2015 05:20 1,9 C 2,8 C 86 % 1011,9 hPa 0,0 l/m 0 min 0 min 0 W/m 2,1 km/h (1 Bft)
28.04.2015 05:22 1,9 C 2,8 C 86 % 1011,9 hPa 0,0 l/m 0 min 0 min 0 W/m 2,1 km/h (1 Bft)
28.04.2015 05:24 1,9 C 2,8 C 86 % 1011,9 hPa 0,0 l/m 0 min 0 min 0 W/m 2,1 km/h (1 Bft)
28.04.2015 05:26 1,9 C 2,8 C 86 % 1011,9 hPa 0,0 l/m 0 min 0 min 0 W/m 2,1 km/h (1 Bft)
28.04.2015 05:28 1,8 C 2,8 C 86 % 1011,9 hPa 0,0 l/m 0 min 0 min 0 W/m 2,1 km/h (1 Bft)
28.04.2015 05:30 1,8 C 2,8 C 86 % 1011,9 hPa 0,0 l/m 0 min 0 min 0 W/m 2,1 km/h (1 Bft)
28.04.2015 05:32 1,8 C 2,2 C 86 % 1011,9 hPa 0,0 l/m 0 min 0 min 0 W/m 2,1 km/h (1 Bft)
28.04.2015 05:34 1,8 C 2,2 C 86 % 1011,9 hPa 0,0 l/m 0 min 0 min 0 W/m 2,1 km/h (1 Bft)
28.04.2015 05:36 1,7 C 2,2 C 86 % 1011,9 hPa 0,0 l/m 0 min 0 min 0 W/m 4,2 km/h (1 Bft)
28.04.2015 05:38 1,7 C 2,2 C 86 % 1012,0 hPa 0,0 l/m 0 min 0 min 0 W/m 4,2 km/h (1 Bft)
28.04.2015 05:40 1,7 C 2,2 C 86 % 1012,0 hPa 0,0 l/m 0 min 0 min 0 W/m 4,2 km/h (1 Bft)
28.04.2015 05:42 1,7 C 2,2 C 86 % 1011,9 hPa 0,0 l/m 0 min 0 min 0 W/m 2,1 km/h (1 Bft)
28.04.2015 05:44 1,7 C 2,2 C 86 % 1012,0 hPa 0,0 l/m 0 min 0 min 0 W/m 2,1 km/h (1 Bft)
28.04.2015 05:46 1,7 C 2,2 C 87 % 1012,0 hPa 0,0 l/m 0 min 0 min 0 W/m 4,2 km/h (1 Bft)
28.04.2015 05:48 1,6 C 2,2 C 87 % 1012,0 hPa 0,0 l/m 0 min 0 min 0 W/m 2,1 km/h (1 Bft)
28.04.2015 05:50 1,6 C 2,2 C 87 % 1012,0 hPa 0,0 l/m 0 min 0 min 0 W/m 2,1 km/h (1 Bft)
28.04.2015 05:52 1,6 C 2,8 C 87 % 1012,0 hPa 0,0 l/m 0 min 0 min 0 W/m 2,1 km/h (1 Bft)
28.04.2015 05:54 1,6 C 2,8 C 87 % 1012,0 hPa 0,0 l/m 0 min 0 min 0 W/m 2,1 km/h (1 Bft)
28.04.2015 05:56 1,6 C 2,2 C 87 % 1012,0 hPa 0,0 l/m 0 min 0 min 0 W/m 2,1 km/h (1 Bft)
28.04.2015 05:58 1,5 C 2,2 C 87 % 1012,0 hPa 0,0 l/m 0 min 0 min 0 W/m 4,2 km/h (1 Bft)
28.04.2015 06:00 1,5 C 2,2 C 87 % 1012,0 hPa 0,0 l/m 0 min 0 min 0 W/m 4,2 km/h (1 Bft)
28.04.2015 06:02 1,5 C 2,2 C 87 % 1012,1 hPa 0,0 l/m 0 min 0 min 0 W/m 4,2 km/h (1 Bft)
28.04.2015 06:06 1,4 C 2,2 C 87 % 1012,1 hPa 0,0 l/m 0 min 0 min 0 W/m 2,1 km/h (1 Bft)
28.04.2015 06:08 1,4 C 2,2 C 87 % 1012,1 hPa 0,0 l/m 0 min 0 min 0 W/m 2,1 km/h (1 Bft)
28.04.2015 06:10 1,4 C 2,2 C 87 % 1012,0 hPa 0,0 l/m 0 min 0 min 0 W/m 0,0 km/h (0 Bft)
28.04.2015 06:12 1,4 C 2,2 C 87 % 1012,0 hPa 0,0 l/m 0 min 0 min 2 W/m 2,1 km/h (1 Bft)
28.04.2015 06:14 1,4 C 2,2 C 87 % 1012,1 hPa 0,0 l/m 0 min 0 min 5 W/m 2,1 km/h (1 Bft)
28.04.2015 06:16 1,3 C 2,2 C 87 % 1012,1 hPa 0,0 l/m 0 min 0 min 5 W/m 2,1 km/h (1 Bft)
28.04.2015 06:18 1,3 C 2,2 C 87 % 1012,1 hPa 0,0 l/m 0 min 0 min 5 W/m 4,2 km/h (1 Bft)
28.04.2015 06:20 1,3 C 2,2 C 87 % 1012,2 hPa 0,0 l/m 0 min 0 min 7 W/m 2,1 km/h (1 Bft)
28.04.2015 06:22 1,3 C 2,2 C 87 % 1012,2 hPa 0,0 l/m 0 min 0 min 7 W/m 4,2 km/h (1 Bft)
28.04.2015 06:24 1,2 C 2,2 C 87 % 1012,2 hPa 0,0 l/m 0 min 0 min 8 W/m 2,1 km/h (1 Bft)
28.04.2015 06:26 1,2 C 2,2 C 87 % 1012,2 hPa 0,0 l/m 0 min 0 min 10 W/m 2,1 km/h (1 Bft)
28.04.2015 06:28 1,2 C 2,2 C 87 % 1012,3 hPa 0,0 l/m 0 min 0 min 11 W/m 2,1 km/h (1 Bft)
28.04.2015 06:30 1,2 C 2,2 C 87 % 1012,3 hPa 0,0 l/m 0 min 0 min 11 W/m 2,1 km/h (1 Bft)
28.04.2015 06:32 1,2 C 2,2 C 87 % 1012,4 hPa 0,0 l/m 0 min 0 min 12 W/m 2,1 km/h (1 Bft)
28.04.2015 06:34 1,2 C 2,2 C 88 % 1012,4 hPa 0,0 l/m 0 min 0 min 13 W/m 2,1 km/h (1 Bft)
28.04.2015 06:36 1,1 C 2,2 C 88 % 1012,4 hPa 0,0 l/m 0 min 0 min 14 W/m 2,1 km/h (1 Bft)
28.04.2015 06:38 1,1 C 2,2 C 88 % 1012,4 hPa 0,0 l/m 0 min 0 min 14 W/m 2,1 km/h (1 Bft)
28.04.2015 06:40 1,1 C 2,2 C 88 % 1012,5 hPa 0,0 l/m 0 min 0 min 15 W/m 2,1 km/h (1 Bft)
28.04.2015 06:42 1,1 C 2,2 C 88 % 1012,6 hPa 0,0 l/m 0 min 0 min 16 W/m 2,1 km/h (1 Bft)
28.04.2015 06:44 1,1 C 2,2 C 88 % 1012,6 hPa 0,0 l/m 0 min 0 min 16 W/m 2,1 km/h (1 Bft)
28.04.2015 06:46 1,1 C 2,2 C 88 % 1012,7 hPa 0,0 l/m 0 min 0 min 18 W/m 2,1 km/h (1 Bft)
28.04.2015 06:48 1,1 C 2,2 C 88 % 1012,6 hPa 0,0 l/m 0 min 0 min 18 W/m 0,0 km/h (0 Bft)
28.04.2015 06:50 1,0 C 2,2 C 88 % 1012,6 hPa 0,0 l/m 0 min 0 min 19 W/m 0,0 km/h (0 Bft)
28.04.2015 06:52 1,0 C 2,2 C 88 % 1012,7 hPa 0,0 l/m 0 min 0 min 19 W/m 2,1 km/h (1 Bft)
28.04.2015 06:54 1,0 C 2,2 C 88 % 1012,7 hPa 0,0 l/m 0 min 0 min 20 W/m 2,1 km/h (1 Bft)
28.04.2015 06:56 1,0 C 2,2 C 88 % 1012,7 hPa 0,0 l/m 0 min 0 min 21 W/m 2,1 km/h (1 Bft)
28.04.2015 06:58 0,9 C 2,2 C 88 % 1012,7 hPa 0,0 l/m 0 min 0 min 23 W/m 4,2 km/h (1 Bft)
28.04.2015 07:00 0,9 C 2,2 C 88 % 1012,8 hPa 0,0 l/m 0 min 0 min 25 W/m 4,2 km/h (1 Bft)
28.04.2015 07:02 0,9 C 2,2 C 88 % 1012,9 hPa 0,0 l/m 0 min 0 min 26 W/m 4,2 km/h (1 Bft)
28.04.2015 07:04 0,9 C 2,2 C 88 % 1012,9 hPa 0,0 l/m 0 min 0 min 27 W/m 4,2 km/h (1 Bft)
28.04.2015 07:06 0,9 C 2,2 C 88 % 1012,9 hPa 0,0 l/m 0 min 0 min 32 W/m 2,1 km/h (1 Bft)
28.04.2015 07:08 0,9 C 2,2 C 88 % 1012,9 hPa 0,0 l/m 0 min 0 min 58 W/m 4,2 km/h (1 Bft)
28.04.2015 07:10 0,9 C 2,2 C 88 % 1013,0 hPa 0,0 l/m 2 min 0 min 75 W/m 4,2 km/h (1 Bft)
28.04.2015 07:12 0,9 C 2,2 C 88 % 1012,9 hPa 0,0 l/m 2 min 0 min 91 W/m 4,2 km/h (1 Bft)
28.04.2015 07:14 0,9 C 2,2 C 88 % 1013,0 hPa 0,0 l/m 2 min 0 min 93 W/m 4,2 km/h (1 Bft)
28.04.2015 07:16 0,8 C 2,2 C 88 % 1013,0 hPa 0,0 l/m 2 min 0 min 122 W/m 4,2 km/h (1 Bft)
28.04.2015 07:18 0,8 C 2,2 C 88 % 1013,1 hPa 0,0 l/m 2 min 0 min 130 W/m 6,3 km/h (2 Bft)
28.04.2015 07:20 0,8 C 2,2 C 89 % 1013,2 hPa 0,0 l/m 2 min 0 min 135 W/m 4,2 km/h (1 Bft)
28.04.2015 07:22 0,8 C 2,2 C 89 % 1013,1 hPa 0,0 l/m 2 min 0 min 124 W/m 6,3 km/h (2 Bft)
28.04.2015 07:24 0,8 C 2,2 C 89 % 1013,1 hPa 0,0 l/m 2 min 0 min 115 W/m 6,3 km/h (2 Bft)
28.04.2015 07:26 0,9 C 2,2 C 89 % 1013,1 hPa 0,0 l/m 2 min 0 min 140 W/m 6,3 km/h (2 Bft)
28.04.2015 07:28 0,9 C 2,2 C 89 % 1013,1 hPa 0,0 l/m 2 min 0 min 145 W/m 6,3 km/h (2 Bft)
28.04.2015 07:30 0,9 C 2,2 C 89 % 1013,2 hPa 0,0 l/m 2 min 0 min 103 W/m 6,3 km/h (2 Bft)
28.04.2015 07:32 0,9 C 2,2 C 89 % 1013,1 hPa 0,0 l/m 2 min 0 min 103 W/m 6,3 km/h (2 Bft)
28.04.2015 07:34 0,9 C 2,8 C 89 % 1013,2 hPa 0,0 l/m 2 min 0 min 168 W/m 6,3 km/h (2 Bft)
28.04.2015 07:36 0,9 C 2,8 C 90 % 1013,3 hPa 0,0 l/m 2 min 0 min 164 W/m 8,4 km/h (2 Bft)
28.04.2015 07:38 1,0 C 2,8 C 90 % 1013,3 hPa 0,0 l/m 2 min 0 min 180 W/m 8,4 km/h (2 Bft)
28.04.2015 07:40 1,0 C 2,8 C 90 % 1013,2 hPa 0,0 l/m 2 min 0 min 127 W/m 8,4 km/h (2 Bft)
28.04.2015 07:42 1,1 C 2,8 C 90 % 1013,3 hPa 0,0 l/m 2 min 0 min 170 W/m 6,3 km/h (2 Bft)
28.04.2015 07:44 1,1 C 2,8 C 90 % 1013,3 hPa 0,0 l/m 2 min 0 min 186 W/m 6,3 km/h (2 Bft)
28.04.2015 07:46 1,2 C 2,8 C 91 % 1013,3 hPa 0,0 l/m 2 min 0 min 165 W/m 8,4 km/h (2 Bft)
28.04.2015 07:48 1,2 C 2,8 C 91 % 1013,4 hPa 0,0 l/m 2 min 0 min 135 W/m 8,4 km/h (2 Bft)
28.04.2015 07:50 1,3 C 2,8 C 91 % 1013,4 hPa 0,0 l/m 2 min 0 min 137 W/m 6,3 km/h (2 Bft)
28.04.2015 07:52 1,3 C 2,8 C 91 % 1013,5 hPa 0,0 l/m 2 min 0 min 206 W/m 4,2 km/h (1 Bft)
28.04.2015 07:54 1,4 C 2,8 C 91 % 1013,5 hPa 0,0 l/m 2 min 0 min 238 W/m 4,2 km/h (1 Bft)
28.04.2015 07:56 1,4 C 2,8 C 91 % 1013,5 hPa 0,0 l/m 2 min 0 min 208 W/m 6,3 km/h (2 Bft)
28.04.2015 07:58 1,4 C 2,8 C 91 % 1013,6 hPa 0,0 l/m 2 min 0 min 185 W/m 6,3 km/h (2 Bft)
28.04.2015 08:00 1,5 C 2,8 C 91 % 1013,5 hPa 0,0 l/m 2 min 0 min 135 W/m 6,3 km/h (2 Bft)
28.04.2015 08:02 1,6 C 3,3 C 92 % 1013,5 hPa 0,0 l/m 2 min 0 min 177 W/m 4,2 km/h (1 Bft)
28.04.2015 08:04 1,6 C 3,3 C 92 % 1013,6 hPa 0,0 l/m 2 min 0 min 202 W/m 4,2 km/h (1 Bft)
28.04.2015 08:06 1,7 C 3,3 C 92 % 1013,7 hPa 0,0 l/m 2 min 0 min 166 W/m 4,2 km/h (1 Bft)
28.04.2015 08:08 1,7 C 3,3 C 92 % 1013,7 hPa 0,0 l/m 2 min 0 min 238 W/m 6,3 km/h (2 Bft)
28.04.2015 08:10 1,8 C 3,3 C 92 % 1013,7 hPa 0,0 l/m 2 min 0 min 209 W/m 6,3 km/h (2 Bft)
28.04.2015 08:12 1,8 C 3,3 C 92 % 1013,7 hPa 0,0 l/m 2 min 0 min 181 W/m 6,3 km/h (2 Bft)
28.04.2015 08:14 1,8 C 3,3 C 92 % 1013,7 hPa 0,0 l/m 2 min 0 min 237 W/m 6,3 km/h (2 Bft)
28.04.2015 08:16 1,9 C 3,3 C 92 % 1013,7 hPa 0,0 l/m 2 min 0 min 203 W/m 6,3 km/h (2 Bft)
28.04.2015 08:18 1,9 C 3,3 C 92 % 1013,7 hPa 0,0 l/m 2 min 0 min 267 W/m 6,3 km/h (2 Bft)
28.04.2015 08:20 2,0 C 3,3 C 93 % 1013,8 hPa 0,0 l/m 2 min 0 min 295 W/m 4,2 km/h (1 Bft)
28.04.2015 08:22 2,1 C 3,3 C 92 % 1013,7 hPa 0,0 l/m 2 min 0 min 269 W/m 6,3 km/h (2 Bft)
28.04.2015 08:24 2,1 C 3,3 C 92 % 1013,8 hPa 0,0 l/m 2 min 0 min 209 W/m 6,3 km/h (2 Bft)
28.04.2015 08:26 2,2 C 3,3 C 93 % 1013,9 hPa 0,0 l/m 2 min 0 min 226 W/m 6,3 km/h (2 Bft)
28.04.2015 08:28 2,2 C 3,3 C 93 % 1013,9 hPa 0,0 l/m 2 min 0 min 238 W/m 6,3 km/h (2 Bft)
28.04.2015 08:30 2,3 C 3,3 C 93 % 1013,8 hPa 0,0 l/m 2 min 0 min 294 W/m 6,3 km/h (2 Bft)
28.04.2015 08:32 2,4 C 3,9 C 93 % 1013,7 hPa 0,0 l/m 2 min 0 min 270 W/m 8,4 km/h (2 Bft)
28.04.2015 08:34 2,4 C 3,9 C 93 % 1013,8 hPa 0,0 l/m 2 min 0 min 327 W/m 4,2 km/h (1 Bft)
28.04.2015 08:36 2,5 C 3,9 C 93 % 1013,8 hPa 0,0 l/m 2 min 0 min 211 W/m 4,2 km/h (1 Bft)
28.04.2015 08:38 2,6 C 3,9 C 93 % 1013,9 hPa 0,0 l/m 2 min 0 min 264 W/m 6,3 km/h (2 Bft)
28.04.2015 08:40 2,6 C 3,9 C 93 % 1013,9 hPa 0,0 l/m 2 min 0 min 325 W/m 8,4 km/h (2 Bft)
28.04.2015 08:42 2,7 C 3,9 C 93 % 1013,8 hPa 0,0 l/m 2 min 0 min 276 W/m 6,3 km/h (2 Bft)
28.04.2015 08:44 2,8 C 3,9 C 93 % 1013,8 hPa 0,0 l/m 2 min 0 min 236 W/m 6,3 km/h (2 Bft)
28.04.2015 08:46 2,8 C 3,9 C 93 % 1013,9 hPa 0,0 l/m 2 min 0 min 218 W/m 6,3 km/h (2 Bft)
28.04.2015 08:48 2,9 C 3,9 C 93 % 1013,9 hPa 0,0 l/m 2 min 0 min 272 W/m 10,5 km/h (2 Bft)
28.04.2015 08:50 2,9 C 3,9 C 93 % 1013,9 hPa 0,0 l/m 2 min 0 min 260 W/m 6,3 km/h (2 Bft)
28.04.2015 08:52 3,1 C 3,9 C 93 % 1013,9 hPa 0,0 l/m 2 min 0 min 288 W/m 8,4 km/h (2 Bft)
28.04.2015 08:54 3,1 C 3,9 C 93 % 1013,9 hPa 0,0 l/m 2 min 0 min 270 W/m 8,4 km/h (2 Bft)
28.04.2015 08:56 3,2 C 3,9 C 93 % 1013,9 hPa 0,0 l/m 0 min 0 min 188 W/m 8,4 km/h (2 Bft)
28.04.2015 08:58 3,3 C 3,9 C 93 % 1013,9 hPa 0,0 l/m 2 min 0 min 363 W/m 14,6 km/h (3 Bft)
28.04.2015 09:00 3,4 C 4,4 C 93 % 1013,9 hPa 0,0 l/m 2 min 0 min 314 W/m 8,4 km/h (2 Bft)
28.04.2015 09:02 3,6 C 4,4 C 93 % 1013,9 hPa 0,0 l/m 2 min 0 min 347 W/m 12,6 km/h (3 Bft)
28.04.2015 09:04 3,7 C 4,4 C 94 % 1013,9 hPa 0,0 l/m 2 min 0 min 440 W/m 10,5 km/h (2 Bft)
28.04.2015 09:06 3,8 C 4,4 C 93 % 1013,9 hPa 0,0 l/m 2 min 0 min 445 W/m 10,5 km/h (2 Bft)
28.04.2015 09:08 3,9 C 4,4 C 94 % 1014,0 hPa 0,0 l/m 2 min 0 min 419 W/m 6,3 km/h (2 Bft)
28.04.2015 09:10 4,1 C 4,4 C 93 % 1014,0 hPa 0,0 l/m 2 min 0 min 435 W/m 12,6 km/h (3 Bft)
28.04.2015 09:12 4,2 C 4,4 C 93 % 1014,0 hPa 0,0 l/m 2 min 0 min 432 W/m 12,6 km/h (3 Bft)
28.04.2015 09:14 4,4 C 4,4 C 93 % 1014,0 hPa 0,0 l/m 2 min 0 min 455 W/m 10,5 km/h (2 Bft)
28.04.2015 09:16 4,6 C 4,4 C 93 % 1013,9 hPa 0,0 l/m 2 min 0 min 462 W/m 6,3 km/h (2 Bft)
28.04.2015 09:18 4,8 C 4,4 C 93 % 1013,9 hPa 0,0 l/m 2 min 0 min 332 W/m 10,5 km/h (2 Bft)
28.04.2015 09:20 4,9 C 4,4 C 93 % 1013,9 hPa 0,0 l/m 2 min 0 min 438 W/m 10,5 km/h (2 Bft)
28.04.2015 09:22 5,2 C 5,0 C 92 % 1013,9 hPa 0,0 l/m 2 min 0 min 481 W/m 10,5 km/h (2 Bft)
28.04.2015 09:24 5,4 C 5,0 C 92 % 1013,9 hPa 0,0 l/m 2 min 0 min 483 W/m 10,5 km/h (2 Bft)
28.04.2015 09:26 5,6 C 5,0 C 91 % 1013,9 hPa 0,0 l/m 2 min 0 min 493 W/m 16,7 km/h (3 Bft)
28.04.2015 09:28 5,8 C 5,0 C 91 % 1014,0 hPa 0,0 l/m 2 min 0 min 355 W/m 14,6 km/h (3 Bft)
28.04.2015 09:30 6,0 C 5,0 C 90 % 1014,0 hPa 0,0 l/m 2 min 0 min 342 W/m 16,7 km/h (3 Bft)
28.04.2015 09:32 6,2 C 5,0 C 89 % 1014,0 hPa 0,0 l/m 2 min 0 min 444 W/m 14,6 km/h (3 Bft)
28.04.2015 09:34 6,4 C 5,6 C 88 % 1014,0 hPa 0,0 l/m 2 min 0 min 467 W/m 8,4 km/h (2 Bft)
28.04.2015 09:36 6,6 C 5,6 C 87 % 1014,1 hPa 0,0 l/m 2 min 0 min 516 W/m 12,6 km/h (3 Bft)
28.04.2015 09:38 6,8 C 5,6 C 87 % 1014,1 hPa 0,0 l/m 2 min 0 min 516 W/m 16,7 km/h (3 Bft)
28.04.2015 09:40 7,0 C 5,6 C 86 % 1014,1 hPa 0,0 l/m 2 min 0 min 519 W/m 14,6 km/h (3 Bft)
28.04.2015 09:42 7,2 C 5,6 C 84 % 1014,1 hPa 0,0 l/m 2 min 0 min 533 W/m 16,7 km/h (3 Bft)
28.04.2015 09:44 7,4 C 6,1 C 83 % 1014,2 hPa 0,0 l/m 2 min 0 min 527 W/m 18,8 km/h (3 Bft)
28.04.2015 09:46 7,6 C 6,1 C 82 % 1014,2 hPa 0,0 l/m 2 min 0 min 535 W/m 14,6 km/h (3 Bft)
28.04.2015 09:48 7,8 C 6,1 C 81 % 1014,2 hPa 0,0 l/m 2 min 0 min 534 W/m 20,9 km/h (4 Bft)
28.04.2015 09:50 8,0 C 6,7 C 80 % 1014,2 hPa 0,0 l/m 2 min 0 min 531 W/m 14,6 km/h (3 Bft)
28.04.2015 09:52 8,1 C 6,7 C 79 % 1014,2 hPa 0,0 l/m 2 min 0 min 539 W/m 23,0 km/h (4 Bft)
28.04.2015 09:54 8,3 C 6,7 C 78 % 1014,2 hPa 0,0 l/m 2 min 0 min 545 W/m 20,9 km/h (4 Bft)
28.04.2015 09:56 8,4 C 6,7 C 77 % 1014,2 hPa 0,0 l/m 2 min 0 min 547 W/m 20,9 km/h (4 Bft)
28.04.2015 09:58 8,6 C 6,7 C 77 % 1014,2 hPa 0,0 l/m 2 min 0 min 550 W/m 18,8 km/h (3 Bft)
28.04.2015 10:00 8,8 C 6,7 C 76 % 1014,3 hPa 0,0 l/m 2 min 0 min 555 W/m 16,7 km/h (3 Bft)
28.04.2015 10:02 8,9 C 7,2 C 76 % 1014,3 hPa 0,0 l/m 2 min 0 min 557 W/m 20,9 km/h (4 Bft)
28.04.2015 10:04 9,1 C 7,2 C 76 % 1014,3 hPa 0,0 l/m 2 min 0 min 563 W/m 20,9 km/h (4 Bft)
28.04.2015 10:06 9,3 C 7,2 C 75 % 1014,3 hPa 0,0 l/m 2 min 0 min 566 W/m 20,9 km/h (4 Bft)
28.04.2015 10:08 9,4 C 7,2 C 75 % 1014,3 hPa 0,0 l/m 2 min 0 min 578 W/m 16,7 km/h (3 Bft)
28.04.2015 10:10 9,5 C 7,2 C 74 % 1014,4 hPa 0,0 l/m 2 min 0 min 581 W/m 23,0 km/h (4 Bft)
28.04.2015 10:12 9,6 C 7,2 C 72 % 1014,4 hPa 0,0 l/m 2 min 0 min 582 W/m 18,8 km/h (3 Bft)
28.04.2015 10:14 9,7 C 7,2 C 72 % 1014,4 hPa 0,0 l/m 2 min 0 min 585 W/m 23,0 km/h (4 Bft)
28.04.2015 10:16 9,8 C 7,2 C 71 % 1014,5 hPa 0,0 l/m 2 min 0 min 588 W/m 20,9 km/h (4 Bft)
28.04.2015 10:18 9,8 C 7,2 C 70 % 1014,5 hPa 0,0 l/m 2 min 0 min 597 W/m 18,8 km/h (3 Bft)
28.04.2015 10:20 9,9 C 7,2 C 69 % 1014,5 hPa 0,0 l/m 2 min 0 min 602 W/m 20,9 km/h (4 Bft)
28.04.2015 10:22 10,0 C 7,8 C 69 % 1014,4 hPa 0,0 l/m 2 min 0 min 604 W/m 16,7 km/h (3 Bft)
28.04.2015 10:24 10,1 C 7,8 C 68 % 1014,4 hPa 0,0 l/m 2 min 0 min 608 W/m 18,8 km/h (3 Bft)
28.04.2015 10:26 10,2 C 7,8 C 68 % 1014,4 hPa 0,0 l/m 2 min 0 min 631 W/m 16,7 km/h (3 Bft)
28.04.2015 10:28 10,2 C 8,3 C 68 % 1014,5 hPa 0,0 l/m 2 min 0 min 729 W/m 14,6 km/h (3 Bft)
28.04.2015 10:30 10,4 C 8,3 C 68 % 1014,5 hPa 0,0 l/m 2 min 0 min 797 W/m 14,6 km/h (3 Bft)
28.04.2015 10:32 10,6 C 8,9 C 69 % 1014,5 hPa 0,0 l/m 2 min 0 min 802 W/m 18,8 km/h (3 Bft)
28.04.2015 10:34 10,8 C 8,9 C 68 % 1014,5 hPa 0,0 l/m 2 min 0 min 831 W/m 23,0 km/h (4 Bft)
28.04.2015 10:36 10,9 C 8,9 C 67 % 1014,5 hPa 0,0 l/m 2 min 0 min 694 W/m 23,0 km/h (4 Bft)
28.04.2015 10:38 10,9 C 8,9 C 67 % 1014,5 hPa 0,0 l/m 2 min 0 min 657 W/m 29,3 km/h (5 Bft)
28.04.2015 10:40 11,0 C 8,9 C 66 % 1014,6 hPa 0,0 l/m 2 min 0 min 654 W/m 20,9 km/h (4 Bft)
28.04.2015 10:42 11,1 C 8,9 C 67 % 1014,6 hPa 0,0 l/m 2 min 0 min 645 W/m 23,0 km/h (4 Bft)
28.04.2015 10:44 11,1 C 8,9 C 67 % 1014,6 hPa 0,0 l/m 2 min 0 min 640 W/m 20,9 km/h (4 Bft)
28.04.2015 10:46 11,2 C 8,3 C 67 % 1014,6 hPa 0,0 l/m 2 min 0 min 642 W/m 25,1 km/h (4 Bft)
28.04.2015 10:48 11,3 C 8,9 C 67 % 1014,6 hPa 0,0 l/m 2 min 0 min 647 W/m 23,0 km/h (4 Bft)
28.04.2015 10:50 11,3 C 8,9 C 68 % 1014,6 hPa 0,0 l/m 2 min 0 min 659 W/m 27,2 km/h (4 Bft)
28.04.2015 10:52 11,4 C 8,9 C 67 % 1014,6 hPa 0,0 l/m 2 min 0 min 659 W/m 23,0 km/h (4 Bft)
28.04.2015 10:54 11,4 C 8,9 C 68 % 1014,7 hPa 0,0 l/m 2 min 0 min 658 W/m 20,9 km/h (4 Bft)
28.04.2015 10:56 11,4 C 8,9 C 68 % 1014,7 hPa 0,0 l/m 2 min 0 min 671 W/m 16,7 km/h (3 Bft)
28.04.2015 10:58 11,5 C 8,9 C 68 % 1014,7 hPa 0,0 l/m 2 min 0 min 680 W/m 20,9 km/h (4 Bft)
28.04.2015 11:00 11,6 C 8,9 C 68 % 1014,6 hPa 0,0 l/m 2 min 0 min 676 W/m 16,7 km/h (3 Bft)
28.04.2015 11:02 11,6 C 8,9 C 68 % 1014,6 hPa 0,0 l/m 2 min 0 min 650 W/m 18,8 km/h (3 Bft)
28.04.2015 11:04 11,7 C 9,4 C 69 % 1014,6 hPa 0,0 l/m 2 min 0 min 683 W/m 25,1 km/h (4 Bft)
28.04.2015 11:06 11,7 C 9,4 C 68 % 1014,6 hPa 0,0 l/m 2 min 0 min 695 W/m 20,9 km/h (4 Bft)
28.04.2015 11:08 11,8 C 9,4 C 68 % 1014,6 hPa 0,0 l/m 2 min 0 min 701 W/m 23,0 km/h (4 Bft)
28.04.2015 11:10 11,8 C 9,4 C 68 % 1014,7 hPa 0,0 l/m 2 min 0 min 714 W/m 27,2 km/h (4 Bft)
28.04.2015 11:12 11,9 C 9,4 C 68 % 1014,7 hPa 0,0 l/m 2 min 0 min 721 W/m 14,6 km/h (3 Bft)
28.04.2015 11:14 12,0 C 9,4 C 68 % 1014,7 hPa 0,0 l/m 2 min 0 min 722 W/m 23,0 km/h (4 Bft)
28.04.2015 11:16 12,1 C 9,4 C 69 % 1014,7 hPa 0,0 l/m 2 min 0 min 718 W/m 23,0 km/h (4 Bft)
28.04.2015 11:18 12,1 C 9,4 C 68 % 1014,8 hPa 0,0 l/m 2 min 0 min 740 W/m 23,0 km/h (4 Bft)
28.04.2015 11:20 12,2 C 9,4 C 67 % 1014,7 hPa 0,0 l/m 2 min 0 min 766 W/m 25,1 km/h (4 Bft)
28.04.2015 11:22 12,2 C 10,0 C 68 % 1014,8 hPa 0,0 l/m 2 min 0 min 793 W/m 23,0 km/h (4 Bft)
28.04.2015 11:24 12,3 C 10,0 C 68 % 1014,7 hPa 0,0 l/m 2 min 0 min 569 W/m 25,1 km/h (4 Bft)
28.04.2015 11:26 12,3 C 9,4 C 66 % 1014,7 hPa 0,0 l/m 2 min 0 min 355 W/m 23,0 km/h (4 Bft)
28.04.2015 11:28 12,3 C 9,4 C 67 % 1014,7 hPa 0,0 l/m 2 min 0 min 732 W/m 20,9 km/h (4 Bft)
28.04.2015 11:30 12,3 C 10,0 C 67 % 1014,7 hPa 0,0 l/m 2 min 0 min 828 W/m 29,3 km/h (5 Bft)
28.04.2015 11:32 12,4 C 10,0 C 66 % 1014,7 hPa 0,0 l/m 2 min 0 min 829 W/m 23,0 km/h (4 Bft)
28.04.2015 11:34 12,4 C 10,0 C 67 % 1014,7 hPa 0,0 l/m 2 min 0 min 820 W/m 20,9 km/h (4 Bft)
28.04.2015 11:36 12,6 C 10,0 C 67 % 1014,8 hPa 0,0 l/m 2 min 0 min 844 W/m 18,8 km/h (3 Bft)
28.04.2015 11:38 12,7 C 10,6 C 67 % 1014,8 hPa 0,0 l/m 2 min 0 min 847 W/m 18,8 km/h (3 Bft)
28.04.2015 11:40 12,9 C 11,1 C 68 % 1014,8 hPa 0,0 l/m 2 min 0 min 897 W/m 16,7 km/h (3 Bft)
28.04.2015 11:42 13,1 C 11,1 C 68 % 1014,8 hPa 0,0 l/m 2 min 0 min 928 W/m 23,0 km/h (4 Bft)
28.04.2015 11:44 13,2 C 11,1 C 65 % 1014,8 hPa 0,0 l/m 2 min 0 min 791 W/m 33,5 km/h (5 Bft)
28.04.2015 11:46 13,2 C 10,6 C 63 % 1014,8 hPa 0,0 l/m 2 min 0 min 384 W/m 25,1 km/h (4 Bft)
28.04.2015 11:48 13,2 C 10,6 C 63 % 1014,9 hPa 0,0 l/m 0 min 0 min 296 W/m 27,2 km/h (4 Bft)
28.04.2015 11:50 13,1 C 10,0 C 63 % 1014,9 hPa 0,0 l/m 0 min 0 min 265 W/m 23,0 km/h (4 Bft)
28.04.2015 11:52 12,9 C 10,0 C 63 % 1014,9 hPa 0,0 l/m 0 min 0 min 219 W/m 20,9 km/h (4 Bft)
28.04.2015 11:54 12,7 C 10,0 C 63 % 1015,0 hPa 0,0 l/m 0 min 0 min 194 W/m 23,0 km/h (4 Bft)
28.04.2015 11:56 12,6 C 9,4 C 64 % 1015,0 hPa 0,0 l/m 0 min 0 min 189 W/m 23,0 km/h (4 Bft)
28.04.2015 11:58 12,4 C 9,4 C 64 % 1015,0 hPa 0,0 l/m 0 min 0 min 167 W/m 23,0 km/h (4 Bft)
28.04.2015 12:00 12,3 C 9,4 C 64 % 1014,9 hPa 0,0 l/m 0 min 0 min 185 W/m 18,8 km/h (3 Bft)
28.04.2015 12:02 12,2 C 9,4 C 65 % 1014,9 hPa 0,0 l/m 0 min 0 min 262 W/m 20,9 km/h (4 Bft)
28.04.2015 12:06 11,9 C 9,4 C 65 % 1015,0 hPa 0,0 l/m 0 min 0 min 227 W/m 29,3 km/h (5 Bft)
28.04.2015 12:08 11,8 C 9,4 C 65 % 1015,0 hPa 0,0 l/m 0 min 0 min 221 W/m 23,0 km/h (4 Bft)
28.04.2015 12:10 11,7 C 9,4 C 65 % 1015,0 hPa 0,0 l/m 0 min 0 min 170 W/m 25,1 km/h (4 Bft)
28.04.2015 12:12 11,6 C 8,9 C 66 % 1015,0 hPa 0,0 l/m 0 min 0 min 144 W/m 25,1 km/h (4 Bft)
28.04.2015 12:14 11,4 C 8,9 C 66 % 1015,1 hPa 0,0 l/m 0 min 0 min 128 W/m 25,1 km/h (4 Bft)
28.04.2015 12:16 11,3 C 8,9 C 66 % 1015,0 hPa 0,0 l/m 0 min 0 min 173 W/m 31,4 km/h (5 Bft)
28.04.2015 12:18 11,2 C 8,9 C 67 % 1014,9 hPa 0,0 l/m 2 min 0 min 869 W/m 27,2 km/h (4 Bft)
28.04.2015 12:20 11,2 C 9,4 C 68 % 1015,0 hPa 0,0 l/m 2 min 0 min 865 W/m 25,1 km/h (4 Bft)
28.04.2015 12:22 11,3 C 9,4 C 68 % 1015,0 hPa 0,0 l/m 2 min 0 min 851 W/m 25,1 km/h (4 Bft)
28.04.2015 12:24 11,4 C 10,0 C 67 % 1015,0 hPa 0,0 l/m 2 min 0 min 865 W/m 29,3 km/h (5 Bft)
28.04.2015 12:26 11,6 C 10,0 C 65 % 1015,1 hPa 0,0 l/m 2 min 0 min 855 W/m 35,6 km/h (5 Bft)
28.04.2015 12:28 11,7 C 10,0 C 66 % 1015,0 hPa 0,0 l/m 2 min 0 min 848 W/m 27,2 km/h (4 Bft)
28.04.2015 12:30 11,9 C 10,0 C 66 % 1015,0 hPa 0,0 l/m 2 min 0 min 744 W/m 27,2 km/h (4 Bft)
28.04.2015 12:32 12,0 C 10,0 C 64 % 1015,0 hPa 0,0 l/m 2 min 0 min 612 W/m 33,5 km/h (5 Bft)
28.04.2015 12:34 12,1 C 10,6 C 64 % 1015,0 hPa 0,0 l/m 2 min 0 min 514 W/m 33,5 km/h (5 Bft)
28.04.2015 12:36 12,2 C 10,6 C 63 % 1014,9 hPa 0,0 l/m 0 min 0 min 364 W/m 33,5 km/h (5 Bft)
28.04.2015 12:38 12,4 C 10,6 C 64 % 1015,0 hPa 0,0 l/m 2 min 0 min 556 W/m 27,2 km/h (4 Bft)
28.04.2015 12:40 12,5 C 10,6 C 64 % 1015,0 hPa 0,0 l/m 2 min 0 min 892 W/m 31,4 km/h (5 Bft)
28.04.2015 12:42 12,7 C 11,1 C 64 % 1015,1 hPa 0,0 l/m 2 min 0 min 897 W/m 29,3 km/h (5 Bft)
28.04.2015 12:44 12,8 C 11,1 C 63 % 1015,0 hPa 0,0 l/m 2 min 0 min 894 W/m 31,4 km/h (5 Bft)
28.04.2015 12:46 12,9 C 11,1 C 63 % 1015,0 hPa 0,0 l/m 2 min 0 min 816 W/m 27,2 km/h (4 Bft)
28.04.2015 12:48 12,9 C 10,6 C 63 % 1015,1 hPa 0,0 l/m 0 min 0 min 172 W/m 29,3 km/h (5 Bft)
28.04.2015 12:50 12,9 C 10,6 C 63 % 1015,1 hPa 0,0 l/m 0 min 0 min 186 W/m 23,0 km/h (4 Bft)
28.04.2015 12:52 12,9 C 10,6 C 63 % 1015,1 hPa 0,0 l/m 0 min 0 min 177 W/m 27,2 km/h (4 Bft)
28.04.2015 12:54 12,8 C 10,0 C 62 % 1015,2 hPa 0,0 l/m 0 min 0 min 245 W/m 29,3 km/h (5 Bft)
28.04.2015 12:56 12,7 C 10,6 C 62 % 1015,3 hPa 0,0 l/m 0 min 0 min 258 W/m 33,5 km/h (5 Bft)
28.04.2015 12:58 12,6 C 10,6 C 61 % 1015,3 hPa 0,0 l/m 2 min 0 min 392 W/m 29,3 km/h (5 Bft)
28.04.2015 13:00 12,4 C 10,0 C 61 % 1015,3 hPa 0,0 l/m 0 min 0 min 235 W/m 33,5 km/h (5 Bft)
28.04.2015 13:02 12,3 C 10,6 C 61 % 1015,3 hPa 0,0 l/m 2 min 0 min 501 W/m 12,6 km/h (3 Bft)
28.04.2015 13:04 12,4 C 10,6 C 62 % 1015,3 hPa 0,0 l/m 2 min 0 min 910 W/m 23,0 km/h (4 Bft)
28.04.2015 13:06 12,4 C 10,6 C 63 % 1015,3 hPa 0,0 l/m 2 min 0 min 900 W/m 29,3 km/h (5 Bft)
28.04.2015 13:08 12,6 C 11,1 C 61 % 1015,3 hPa 0,0 l/m 2 min 0 min 888 W/m 33,5 km/h (5 Bft)
28.04.2015 13:10 12,7 C 11,1 C 60 % 1015,3 hPa 0,0 l/m 2 min 0 min 886 W/m 31,4 km/h (5 Bft)
28.04.2015 13:12 12,8 C 11,7 C 58 % 1015,3 hPa 0,0 l/m 2 min 0 min 901 W/m 31,4 km/h (5 Bft)
28.04.2015 13:14 13,0 C 11,7 C 61 % 1015,2 hPa 0,0 l/m 2 min 0 min 924 W/m 31,4 km/h (5 Bft)
28.04.2015 13:16 13,2 C 11,7 C 59 % 1015,3 hPa 0,0 l/m 2 min 0 min 958 W/m 29,3 km/h (5 Bft)
28.04.2015 13:18 13,3 C 12,2 C 59 % 1015,3 hPa 0,0 l/m 2 min 0 min 1014 W/m 29,3 km/h (5 Bft)
28.04.2015 13:20 13,5 C 12,2 C 58 % 1015,2 hPa 0,0 l/m 2 min 0 min 1022 W/m 20,9 km/h (4 Bft)
28.04.2015 13:22 13,7 C 12,2 C 59 % 1015,3 hPa 0,0 l/m 2 min 0 min 637 W/m 20,9 km/h (4 Bft)
28.04.2015 13:24 13,7 C 11,7 C 57 % 1015,3 hPa 0,0 l/m 0 min 0 min 263 W/m 25,1 km/h (4 Bft)
28.04.2015 13:26 13,7 C 11,1 C 56 % 1015,4 hPa 0,0 l/m 0 min 0 min 192 W/m 29,3 km/h (5 Bft)
28.04.2015 13:28 13,6 C 11,1 C 56 % 1015,4 hPa 0,0 l/m 0 min 0 min 159 W/m 27,2 km/h (4 Bft)
28.04.2015 13:30 13,5 C 10,6 C 57 % 1015,6 hPa 0,0 l/m 0 min 2 min 135 W/m 43,9 km/h (6 Bft)
28.04.2015 13:32 13,3 C 10,0 C 57 % 1015,5 hPa 0,0 l/m 0 min 2 min 126 W/m 37,7 km/h (5 Bft)
28.04.2015 13:34 13,0 C 9,4 C 58 % 1015,8 hPa 0,0 l/m 0 min 0 min 139 W/m 35,6 km/h (5 Bft)
28.04.2015 13:36 12,7 C 9,4 C 60 % 1015,8 hPa 0,0 l/m 0 min 0 min 146 W/m 39,7 km/h (6 Bft)
28.04.2015 13:38 12,4 C 8,9 C 61 % 1016,1 hPa 0,0 l/m 0 min 0 min 142 W/m 43,9 km/h (6 Bft)
28.04.2015 13:40 12,1 C 8,9 C 62 % 1016,1 hPa 0,0 l/m 0 min 0 min 154 W/m 31,4 km/h (5 Bft)
28.04.2015 13:42 11,8 C 8,9 C 64 % 1016,1 hPa 0,0 l/m 0 min 0 min 178 W/m 29,3 km/h (5 Bft)
28.04.2015 13:44 11,6 C 8,9 C 65 % 1016,1 hPa 0,0 l/m 0 min 0 min 174 W/m 37,7 km/h (5 Bft)
28.04.2015 13:46 11,4 C 8,9 C 65 % 1016,1 hPa 0,0 l/m 0 min 2 min 204 W/m 29,3 km/h (5 Bft)
28.04.2015 13:48 11,2 C 8,9 C 66 % 1016,1 hPa 0,0 l/m 0 min 0 min 241 W/m 29,3 km/h (5 Bft)
28.04.2015 13:50 11,1 C 8,9 C 67 % 1016,1 hPa 0,0 l/m 0 min 2 min 247 W/m 25,1 km/h (4 Bft)
28.04.2015 13:52 10,9 C 8,9 C 68 % 1016,2 hPa 0,0 l/m 0 min 2 min 271 W/m 23,0 km/h (4 Bft)
28.04.2015 13:54 10,9 C 8,9 C 70 % 1016,2 hPa 0,0 l/m 2 min 0 min 507 W/m 20,9 km/h (4 Bft)
28.04.2015 13:56 10,9 C 9,4 C 71 % 1016,2 hPa 0,0 l/m 2 min 0 min 903 W/m 29,3 km/h (5 Bft)
28.04.2015 13:58 11,0 C 9,4 C 71 % 1016,1 hPa 0,0 l/m 2 min 0 min 752 W/m 29,3 km/h (5 Bft)
28.04.2015 14:00 11,1 C 10,0 C 71 % 1016,1 hPa 0,0 l/m 2 min 0 min 729 W/m 23,0 km/h (4 Bft)
28.04.2015 14:02 11,3 C 10,0 C 70 % 1016,1 hPa 0,0 l/m 2 min 0 min 811 W/m 31,4 km/h (5 Bft)
28.04.2015 14:04 11,4 C 10,0 C 69 % 1016,1 hPa 0,0 l/m 2 min 0 min 855 W/m 31,4 km/h (5 Bft)
28.04.2015 14:06 11,6 C 10,0 C 67 % 1016,1 hPa 0,0 l/m 2 min 0 min 895 W/m 35,6 km/h (5 Bft)
28.04.2015 14:08 11,7 C 10,0 C 66 % 1016,1 hPa 0,0 l/m 2 min 0 min 918 W/m 39,7 km/h (6 Bft)
28.04.2015 14:10 11,9 C 10,6 C 67 % 1016,1 hPa 0,0 l/m 2 min 0 min 864 W/m 41,8 km/h (6 Bft)
28.04.2015 14:12 12,0 C 10,6 C 65 % 1016,2 hPa 0,0 l/m 2 min 0 min 812 W/m 35,6 km/h (5 Bft)
28.04.2015 14:14 12,1 C 10,6 C 64 % 1016,3 hPa 0,0 l/m 2 min 0 min 812 W/m 39,7 km/h (6 Bft)
28.04.2015 14:16 12,1 C 10,6 C 65 % 1016,3 hPa 0,0 l/m 2 min 0 min 812 W/m 27,2 km/h (4 Bft)
28.04.2015 14:18 12,2 C 10,6 C 65 % 1016,3 hPa 0,0 l/m 2 min 0 min 863 W/m 29,3 km/h (5 Bft)
28.04.2015 14:20 12,2 C 10,6 C 65 % 1016,3 hPa 0,0 l/m 2 min 0 min 851 W/m 18,8 km/h (3 Bft)
28.04.2015 14:22 12,3 C 11,1 C 66 % 1016,3 hPa 0,0 l/m 2 min 0 min 850 W/m 23,0 km/h (4 Bft)
28.04.2015 14:24 12,5 C 11,1 C 65 % 1016,4 hPa 0,0 l/m 2 min 0 min 866 W/m 31,4 km/h (5 Bft)
28.04.2015 14:26 12,7 C 11,1 C 64 % 1016,4 hPa 0,0 l/m 2 min 0 min 932 W/m 37,7 km/h (5 Bft)
28.04.2015 14:28 12,7 C 11,1 C 62 % 1016,4 hPa 0,0 l/m 2 min 0 min 759 W/m 35,6 km/h (5 Bft)
28.04.2015 14:30 12,7 C 11,1 C 62 % 1016,5 hPa 0,0 l/m 0 min 0 min 291 W/m 25,1 km/h (4 Bft)
28.04.2015 14:32 12,7 C 11,1 C 62 % 1016,6 hPa 0,0 l/m 0 min 0 min 289 W/m 25,1 km/h (4 Bft)
28.04.2015 14:34 12,6 C 10,6 C 61 % 1016,6 hPa 0,0 l/m 0 min 0 min 279 W/m 33,5 km/h (5 Bft)
28.04.2015 14:36 12,4 C 10,6 C 61 % 1016,6 hPa 0,0 l/m 0 min 0 min 270 W/m 25,1 km/h (4 Bft)
28.04.2015 14:38 12,3 C 10,6 C 61 % 1016,6 hPa 0,0 l/m 0 min 0 min 331 W/m 16,7 km/h (3 Bft)
28.04.2015 14:40 12,2 C 11,1 C 63 % 1016,7 hPa 0,0 l/m 2 min 0 min 458 W/m 48,1 km/h (6 Bft)
28.04.2015 14:42 12,2 C 11,1 C 61 % 1016,7 hPa 0,0 l/m 2 min 0 min 515 W/m 33,5 km/h (5 Bft)
28.04.2015 14:44 12,1 C 11,1 C 61 % 1016,7 hPa 0,0 l/m 2 min 0 min 455 W/m 35,6 km/h (5 Bft)
28.04.2015 14:46 12,1 C 11,1 C 61 % 1016,7 hPa 0,0 l/m 0 min 0 min 318 W/m 31,4 km/h (5 Bft)
28.04.2015 14:48 12,0 C 10,6 C 62 % 1016,7 hPa 0,0 l/m 0 min 2 min 277 W/m 29,3 km/h (5 Bft)
28.04.2015 14:50 11,9 C 10,6 C 62 % 1016,7 hPa 0,0 l/m 0 min 2 min 286 W/m 23,0 km/h (4 Bft)
28.04.2015 14:52 11,9 C 10,6 C 64 % 1016,7 hPa 0,0 l/m 0 min 2 min 311 W/m 20,9 km/h (4 Bft)
28.04.2015 14:54 11,9 C 10,6 C 64 % 1016,7 hPa 0,0 l/m 2 min 2 min 390 W/m 29,3 km/h (5 Bft)
28.04.2015 14:56 11,9 C 10,6 C 64 % 1016,6 hPa 0,0 l/m 2 min 0 min 568 W/m 20,9 km/h (4 Bft)
28.04.2015 14:58 11,9 C 11,1 C 64 % 1016,7 hPa 0,0 l/m 2 min 0 min 438 W/m 27,2 km/h (4 Bft)
28.04.2015 15:00 12,0 C 11,7 C 65 % 1016,7 hPa 0,0 l/m 2 min 0 min 438 W/m 18,8 km/h (3 Bft)
28.04.2015 15:02 12,1 C 11,7 C 65 % 1016,7 hPa 0,0 l/m 2 min 0 min 453 W/m 20,9 km/h (4 Bft)
28.04.2015 15:04 12,2 C 12,2 C 64 % 1016,7 hPa 0,0 l/m 2 min 0 min 646 W/m 16,7 km/h (3 Bft)
28.04.2015 15:06 12,4 C 12,2 C 65 % 1016,7 hPa 0,0 l/m 2 min 0 min 881 W/m 29,3 km/h (5 Bft)
28.04.2015 15:08 12,6 C 12,2 C 63 % 1016,8 hPa 0,0 l/m 2 min 0 min 851 W/m 20,9 km/h (4 Bft)
28.04.2015 15:10 12,7 C 12,2 C 64 % 1016,7 hPa 0,0 l/m 2 min 0 min 723 W/m 29,3 km/h (5 Bft)
28.04.2015 15:12 12,9 C 12,2 C 62 % 1016,7 hPa 0,0 l/m 2 min 0 min 704 W/m 33,5 km/h (5 Bft)
28.04.2015 15:14 13,1 C 12,2 C 62 % 1016,7 hPa 0,0 l/m 2 min 0 min 841 W/m 23,0 km/h (4 Bft)
28.04.2015 15:16 13,3 C 12,2 C 60 % 1016,8 hPa 0,0 l/m 2 min 0 min 801 W/m 23,0 km/h (4 Bft)
28.04.2015 15:18 13,4 C 11,7 C 62 % 1016,8 hPa 0,0 l/m 2 min 0 min 793 W/m 20,9 km/h (4 Bft)
28.04.2015 15:20 13,5 C 11,7 C 62 % 1016,9 hPa 0,0 l/m 2 min 0 min 784 W/m 25,1 km/h (4 Bft)
28.04.2015 15:22 13,6 C 11,7 C 58 % 1017,0 hPa 0,0 l/m 2 min 0 min 776 W/m 25,1 km/h (4 Bft)
28.04.2015 15:24 13,7 C 11,7 C 60 % 1016,9 hPa 0,0 l/m 2 min 0 min 776 W/m 16,7 km/h (3 Bft)
28.04.2015 15:26 13,8 C 11,7 C 61 % 1016,9 hPa 0,0 l/m 2 min 0 min 780 W/m 23,0 km/h (4 Bft)
28.04.2015 15:28 13,9 C 11,7 C 59 % 1016,9 hPa 0,0 l/m 2 min 0 min 817 W/m 23,0 km/h (4 Bft)
28.04.2015 15:30 13,9 C 11,7 C 58 % 1016,9 hPa 0,0 l/m 2 min 0 min 684 W/m 20,9 km/h (4 Bft)
28.04.2015 15:32 13,9 C 11,7 C 58 % 1016,9 hPa 0,0 l/m 2 min 0 min 410 W/m 27,2 km/h (4 Bft)
28.04.2015 15:34 13,9 C 11,7 C 55 % 1016,9 hPa 0,0 l/m 2 min 0 min 410 W/m 31,4 km/h (5 Bft)
28.04.2015 15:36 13,9 C 11,7 C 56 % 1016,9 hPa 0,0 l/m 2 min 0 min 435 W/m 14,6 km/h (3 Bft)
28.04.2015 15:38 13,8 C 11,7 C 56 % 1016,9 hPa 0,0 l/m 0 min 0 min 259 W/m 23,0 km/h (4 Bft)
28.04.2015 15:40 13,7 C 11,1 C 56 % 1016,9 hPa 0,0 l/m 0 min 0 min 220 W/m 16,7 km/h (3 Bft)
28.04.2015 15:42 13,6 C 11,1 C 57 % 1017,0 hPa 0,0 l/m 0 min 0 min 171 W/m 14,6 km/h (3 Bft)
28.04.2015 15:44 13,4 C 10,6 C 57 % 1017,0 hPa 0,0 l/m 0 min 0 min 144 W/m 23,0 km/h (4 Bft)
28.04.2015 15:46 13,2 C 10,0 C 58 % 1016,9 hPa 0,0 l/m 0 min 2 min 150 W/m 23,0 km/h (4 Bft)
28.04.2015 15:48 13,1 C 10,0 C 61 % 1016,9 hPa 0,0 l/m 2 min 2 min 520 W/m 16,7 km/h (3 Bft)
28.04.2015 15:50 13,1 C 10,0 C 61 % 1016,9 hPa 0,0 l/m 2 min 0 min 777 W/m 29,3 km/h (5 Bft)
28.04.2015 15:52 12,9 C 10,0 C 60 % 1016,8 hPa 0,0 l/m 2 min 0 min 518 W/m 27,2 km/h (4 Bft)
28.04.2015 15:54 12,9 C 10,0 C 60 % 1016,8 hPa 0,0 l/m 0 min 0 min 275 W/m 23,0 km/h (4 Bft)
28.04.2015 15:56 12,9 C 10,0 C 61 % 1016,8 hPa 0,0 l/m 2 min 0 min 765 W/m 18,8 km/h (3 Bft)
28.04.2015 15:58 12,9 C 10,6 C 60 % 1016,7 hPa 0,0 l/m 2 min 0 min 728 W/m 20,9 km/h (4 Bft)
28.04.2015 16:00 13,0 C 10,6 C 61 % 1016,7 hPa 0,0 l/m 2 min 0 min 798 W/m 25,1 km/h (4 Bft)
28.04.2015 16:02 13,1 C 10,6 C 59 % 1016,7 hPa 0,0 l/m 2 min 0 min 798 W/m 25,1 km/h (4 Bft)
28.04.2015 16:04 13,2 C 11,1 C 60 % 1016,8 hPa 0,0 l/m 2 min 0 min 790 W/m 20,9 km/h (4 Bft)
28.04.2015 16:06 13,3 C 11,1 C 60 % 1016,6 hPa 0,0 l/m 2 min 0 min 830 W/m 25,1 km/h (4 Bft)
28.04.2015 16:08 13,4 C 11,1 C 56 % 1016,7 hPa 0,0 l/m 2 min 0 min 830 W/m 31,4 km/h (5 Bft)
28.04.2015 16:10 13,4 C 11,1 C 55 % 1016,7 hPa 0,0 l/m 2 min 0 min 536 W/m 27,2 km/h (4 Bft)
28.04.2015 16:12 13,3 C 10,6 C 55 % 1016,7 hPa 0,0 l/m 0 min 0 min 235 W/m 18,8 km/h (3 Bft)
28.04.2015 16:14 13,3 C 10,6 C 55 % 1016,7 hPa 0,0 l/m 0 min 0 min 177 W/m 20,9 km/h (4 Bft)
28.04.2015 16:16 13,2 C 10,6 C 54 % 1016,8 hPa 0,0 l/m 0 min 0 min 193 W/m 20,9 km/h (4 Bft)
28.04.2015 16:18 13,2 C 10,6 C 52 % 1016,8 hPa 0,0 l/m 0 min 0 min 198 W/m 29,3 km/h (5 Bft)
28.04.2015 16:20 13,1 C 10,6 C 51 % 1016,8 hPa 0,0 l/m 0 min 0 min 189 W/m 25,1 km/h (4 Bft)
28.04.2015 16:22 12,9 C 10,0 C 51 % 1016,8 hPa 0,0 l/m 0 min 0 min 188 W/m 20,9 km/h (4 Bft)
28.04.2015 16:24 12,9 C 10,0 C 51 % 1016,9 hPa 0,0 l/m 0 min 0 min 196 W/m 20,9 km/h (4 Bft)
28.04.2015 16:26 12,9 C 10,6 C 51 % 1016,9 hPa 0,0 l/m 2 min 0 min 612 W/m 20,9 km/h (4 Bft)
28.04.2015 16:28 12,9 C 10,6 C 50 % 1016,8 hPa 0,0 l/m 2 min 0 min 715 W/m 29,3 km/h (5 Bft)
28.04.2015 16:30 13,0 C 11,1 C 51 % 1016,8 hPa 0,0 l/m 2 min 0 min 666 W/m 29,3 km/h (5 Bft)
28.04.2015 16:32 13,1 C 11,1 C 49 % 1016,8 hPa 0,0 l/m 2 min 0 min 691 W/m 31,4 km/h (5 Bft)
28.04.2015 16:34 13,3 C 11,1 C 48 % 1016,9 hPa 0,0 l/m 2 min 0 min 678 W/m 39,7 km/h (6 Bft)
28.04.2015 16:36 13,4 C 11,1 C 47 % 1016,9 hPa 0,0 l/m 2 min 0 min 677 W/m 35,6 km/h (5 Bft)
28.04.2015 16:38 13,4 C 10,6 C 47 % 1016,9 hPa 0,0 l/m 0 min 0 min 225 W/m 29,3 km/h (5 Bft)
28.04.2015 16:40 13,4 C 10,0 C 47 % 1016,9 hPa 0,0 l/m 0 min 0 min 113 W/m 43,9 km/h (6 Bft)
28.04.2015 16:42 13,3 C 10,0 C 46 % 1017,0 hPa 0,0 l/m 0 min 0 min 142 W/m 29,3 km/h (5 Bft)
28.04.2015 16:44 13,2 C 10,0 C 45 % 1016,9 hPa 0,0 l/m 0 min 0 min 195 W/m 27,2 km/h (4 Bft)
28.04.2015 16:46 13,1 C 10,0 C 45 % 1017,0 hPa 0,0 l/m 0 min 0 min 225 W/m 20,9 km/h (4 Bft)
28.04.2015 16:48 13,1 C 10,6 C 46 % 1017,0 hPa 0,0 l/m 2 min 0 min 288 W/m 33,5 km/h (5 Bft)
28.04.2015 16:50 13,1 C 10,6 C 46 % 1017,0 hPa 0,0 l/m 2 min 0 min 364 W/m 14,6 km/h (3 Bft)
28.04.2015 16:52 13,1 C 10,6 C 47 % 1017,1 hPa 0,0 l/m 2 min 0 min 339 W/m 25,1 km/h (4 Bft)
28.04.2015 16:54 13,0 C 10,6 C 46 % 1017,1 hPa 0,0 l/m 0 min 0 min 247 W/m 31,4 km/h (5 Bft)
28.04.2015 16:56 13,0 C 10,6 C 47 % 1017,2 hPa 0,0 l/m 0 min 0 min 213 W/m 23,0 km/h (4 Bft)
28.04.2015 16:58 12,9 C 10,6 C 45 % 1017,2 hPa 0,0 l/m 0 min 0 min 193 W/m 31,4 km/h (5 Bft)
28.04.2015 17:00 12,9 C 10,6 C 46 % 1017,2 hPa 0,0 l/m 0 min 0 min 194 W/m 25,1 km/h (4 Bft)
28.04.2015 17:02 12,8 C 10,6 C 47 % 1017,2 hPa 0,0 l/m 0 min 0 min 220 W/m 20,9 km/h (4 Bft)
28.04.2015 17:04 12,7 C 10,6 C 47 % 1017,2 hPa 0,0 l/m 2 min 0 min 285 W/m 20,9 km/h (4 Bft)
28.04.2015 17:06 12,7 C 10,6 C 48 % 1017,3 hPa 0,0 l/m 2 min 0 min 298 W/m 25,1 km/h (4 Bft)
28.04.2015 17:08 12,7 C 10,6 C 49 % 1017,3 hPa 0,0 l/m 2 min 0 min 362 W/m 33,5 km/h (5 Bft)
28.04.2015 17:10 12,7 C 11,1 C 48 % 1017,4 hPa 0,0 l/m 2 min 0 min 402 W/m 25,1 km/h (4 Bft)
28.04.2015 17:12 12,7 C 11,1 C 49 % 1017,4 hPa 0,0 l/m 2 min 0 min 561 W/m 20,9 km/h (4 Bft)
28.04.2015 17:14 12,8 C 10,6 C 49 % 1017,4 hPa 0,0 l/m 2 min 0 min 319 W/m 18,8 km/h (3 Bft)
28.04.2015 17:16 12,8 C 10,6 C 48 % 1017,4 hPa 0,0 l/m 2 min 0 min 385 W/m 18,8 km/h (3 Bft)
28.04.2015 17:18 12,8 C 10,6 C 48 % 1017,5 hPa 0,0 l/m 2 min 0 min 344 W/m 16,7 km/h (3 Bft)
28.04.2015 17:20 12,8 C 10,0 C 47 % 1017,4 hPa 0,0 l/m 0 min 0 min 120 W/m 12,6 km/h (3 Bft)
28.04.2015 17:22 12,8 C 10,0 C 48 % 1017,4 hPa 0,0 l/m 0 min 0 min 127 W/m 16,7 km/h (3 Bft)
28.04.2015 17:24 12,8 C 10,0 C 49 % 1017,4 hPa 0,0 l/m 0 min 0 min 141 W/m 10,5 km/h (2 Bft)
28.04.2015 17:26 12,7 C 10,0 C 49 % 1017,5 hPa 0,0 l/m 0 min 0 min 149 W/m 10,5 km/h (2 Bft)
28.04.2015 17:28 12,7 C 10,0 C 49 % 1017,5 hPa 0,0 l/m 0 min 0 min 152 W/m 16,7 km/h (3 Bft)
28.04.2015 17:30 12,7 C 10,6 C 50 % 1017,6 hPa 0,0 l/m 0 min 0 min 161 W/m 29,3 km/h (5 Bft)
28.04.2015 17:32 12,6 C 10,0 C 48 % 1017,7 hPa 0,0 l/m 0 min 0 min 170 W/m 27,2 km/h (4 Bft)
28.04.2015 17:34 12,4 C 10,0 C 48 % 1017,7 hPa 0,0 l/m 0 min 0 min 181 W/m 31,4 km/h (5 Bft)
28.04.2015 17:36 12,3 C 10,0 C 47 % 1017,7 hPa 0,0 l/m 0 min 0 min 194 W/m 35,6 km/h (5 Bft)
28.04.2015 17:38 12,2 C 10,0 C 48 % 1017,7 hPa 0,0 l/m 0 min 0 min 216 W/m 27,2 km/h (4 Bft)
28.04.2015 17:40 12,2 C 10,0 C 48 % 1017,7 hPa 0,0 l/m 2 min 0 min 436 W/m 23,0 km/h (4 Bft)
28.04.2015 17:42 12,2 C 10,0 C 49 % 1017,8 hPa 0,0 l/m 0 min 0 min 199 W/m 23,0 km/h (4 Bft)
28.04.2015 17:44 12,2 C 10,0 C 50 % 1017,8 hPa 0,0 l/m 2 min 0 min 452 W/m 23,0 km/h (4 Bft)
28.04.2015 17:46 12,2 C 10,0 C 48 % 1017,7 hPa 0,0 l/m 2 min 0 min 503 W/m 27,2 km/h (4 Bft)
28.04.2015 17:48 12,2 C 10,0 C 47 % 1017,8 hPa 0,0 l/m 2 min 0 min 448 W/m 23,0 km/h (4 Bft)
28.04.2015 17:50 12,2 C 10,0 C 48 % 1017,8 hPa 0,0 l/m 2 min 0 min 227 W/m 23,0 km/h (4 Bft)
28.04.2015 17:52 12,2 C 10,0 C 50 % 1017,8 hPa 0,0 l/m 2 min 0 min 393 W/m 23,0 km/h (4 Bft)
28.04.2015 17:54 12,3 C 10,0 C 49 % 1017,8 hPa 0,0 l/m 2 min 0 min 464 W/m 31,4 km/h (5 Bft)
28.04.2015 17:56 12,3 C 10,0 C 48 % 1017,8 hPa 0,0 l/m 2 min 0 min 454 W/m 20,9 km/h (4 Bft)
28.04.2015 17:58 12,3 C 10,0 C 49 % 1017,9 hPa 0,0 l/m 2 min 0 min 426 W/m 18,8 km/h (3 Bft)
28.04.2015 18:00 12,4 C 10,0 C 48 % 1018,0 hPa 0,0 l/m 2 min 0 min 413 W/m 20,9 km/h (4 Bft)
28.04.2015 18:02 12,4 C 10,0 C 49 % 1018,0 hPa 0,0 l/m 2 min 0 min 405 W/m 16,7 km/h (3 Bft)
28.04.2015 18:06 12,5 C 10,0 C 48 % 1018,0 hPa 0,0 l/m 2 min 0 min 388 W/m 27,2 km/h (4 Bft)
28.04.2015 18:08 12,6 C 10,0 C 48 % 1018,0 hPa 0,0 l/m 2 min 0 min 382 W/m 18,8 km/h (3 Bft)
28.04.2015 18:10 12,6 C 10,0 C 48 % 1018,0 hPa 0,0 l/m 2 min 0 min 381 W/m 16,7 km/h (3 Bft)
28.04.2015 18:12 12,6 C 10,0 C 49 % 1018,0 hPa 0,0 l/m 2 min 0 min 374 W/m 16,7 km/h (3 Bft)
28.04.2015 18:14 12,6 C 9,4 C 49 % 1018,0 hPa 0,0 l/m 2 min 0 min 343 W/m 23,0 km/h (4 Bft)
28.04.2015 18:16 12,6 C 9,4 C 48 % 1018,0 hPa 0,0 l/m 2 min 0 min 246 W/m 31,4 km/h (5 Bft)
28.04.2015 18:18 12,6 C 9,4 C 47 % 1018,1 hPa 0,0 l/m 2 min 0 min 275 W/m 27,2 km/h (4 Bft)
28.04.2015 18:20 12,5 C 9,4 C 47 % 1018,1 hPa 0,0 l/m 2 min 0 min 256 W/m 29,3 km/h (5 Bft)
28.04.2015 18:22 12,4 C 9,4 C 46 % 1018,2 hPa 0,0 l/m 2 min 0 min 257 W/m 35,6 km/h (5 Bft)
28.04.2015 18:24 12,4 C 9,4 C 47 % 1018,2 hPa 0,0 l/m 2 min 0 min 338 W/m 25,1 km/h (4 Bft)
28.04.2015 18:26 12,3 C 9,4 C 47 % 1018,1 hPa 0,0 l/m 2 min 0 min 332 W/m 29,3 km/h (5 Bft)
28.04.2015 18:28 12,3 C 9,4 C 47 % 1018,2 hPa 0,0 l/m 2 min 0 min 324 W/m 23,0 km/h (4 Bft)
28.04.2015 18:30 12,2 C 9,4 C 47 % 1018,2 hPa 0,0 l/m 2 min 0 min 320 W/m 29,3 km/h (5 Bft)
28.04.2015 18:32 12,2 C 9,4 C 47 % 1018,2 hPa 0,0 l/m 2 min 0 min 318 W/m 25,1 km/h (4 Bft)
28.04.2015 18:34 12,2 C 9,4 C 47 % 1018,2 hPa 0,0 l/m 2 min 0 min 216 W/m 20,9 km/h (4 Bft)
28.04.2015 18:36 12,1 C 9,4 C 46 % 1018,2 hPa 0,0 l/m 2 min 0 min 300 W/m 25,1 km/h (4 Bft)
28.04.2015 18:38 12,1 C 9,4 C 46 % 1018,2 hPa 0,0 l/m 2 min 0 min 305 W/m 18,8 km/h (3 Bft)
28.04.2015 18:40 12,1 C 9,4 C 47 % 1018,2 hPa 0,0 l/m 2 min 0 min 302 W/m 23,0 km/h (4 Bft)
28.04.2015 18:42 12,0 C 9,4 C 46 % 1018,2 hPa 0,0 l/m 2 min 0 min 301 W/m 29,3 km/h (5 Bft)
28.04.2015 18:44 12,0 C 9,4 C 46 % 1018,3 hPa 0,0 l/m 2 min 0 min 297 W/m 25,1 km/h (4 Bft)
28.04.2015 18:46 12,0 C 9,4 C 48 % 1018,2 hPa 0,0 l/m 2 min 0 min 285 W/m 16,7 km/h (3 Bft)
28.04.2015 18:48 11,9 C 9,4 C 48 % 1018,2 hPa 0,0 l/m 2 min 0 min 267 W/m 29,3 km/h (5 Bft)
28.04.2015 18:50 11,9 C 9,4 C 48 % 1018,3 hPa 0,0 l/m 2 min 0 min 257 W/m 25,1 km/h (4 Bft)
28.04.2015 18:52 11,9 C 8,9 C 48 % 1018,3 hPa 0,0 l/m 2 min 0 min 248 W/m 23,0 km/h (4 Bft)
28.04.2015 18:54 11,9 C 8,9 C 47 % 1018,3 hPa 0,0 l/m 2 min 0 min 238 W/m 27,2 km/h (4 Bft)
28.04.2015 18:56 11,9 C 8,9 C 46 % 1018,3 hPa 0,0 l/m 2 min 0 min 228 W/m 20,9 km/h (4 Bft)
28.04.2015 18:58 11,8 C 8,9 C 46 % 1018,3 hPa 0,0 l/m 2 min 0 min 220 W/m 33,5 km/h (5 Bft)
28.04.2015 19:00 11,8 C 8,9 C 46 % 1018,4 hPa 0,0 l/m 2 min 0 min 213 W/m 35,6 km/h (5 Bft)
28.04.2015 19:02 11,7 C 8,9 C 46 % 1018,3 hPa 0,0 l/m 2 min 0 min 207 W/m 33,5 km/h (5 Bft)
28.04.2015 19:04 11,7 C 8,9 C 47 % 1018,4 hPa 0,0 l/m 2 min 0 min 200 W/m 29,3 km/h (5 Bft)
28.04.2015 19:06 11,7 C 8,9 C 47 % 1018,5 hPa 0,0 l/m 2 min 0 min 194 W/m 27,2 km/h (4 Bft)
28.04.2015 19:08 11,6 C 8,9 C 48 % 1018,3 hPa 0,0 l/m 2 min 0 min 188 W/m 25,1 km/h (4 Bft)
28.04.2015 19:10 11,6 C 8,9 C 47 % 1018,5 hPa 0,0 l/m 2 min 0 min 182 W/m 18,8 km/h (3 Bft)
28.04.2015 19:12 11,6 C 8,9 C 48 % 1018,5 hPa 0,0 l/m 2 min 0 min 175 W/m 31,4 km/h (5 Bft)
28.04.2015 19:14 11,5 C 8,9 C 47 % 1018,5 hPa 0,0 l/m 2 min 0 min 161 W/m 20,9 km/h (4 Bft)
28.04.2015 19:16 11,4 C 8,9 C 48 % 1018,5 hPa 0,0 l/m 2 min 0 min 135 W/m 29,3 km/h (5 Bft)
28.04.2015 19:18 11,4 C 8,3 C 48 % 1018,6 hPa 0,0 l/m 2 min 0 min 123 W/m 27,2 km/h (4 Bft)
28.04.2015 19:20 11,3 C 8,3 C 48 % 1018,6 hPa 0,0 l/m 2 min 0 min 128 W/m 20,9 km/h (4 Bft)
28.04.2015 19:22 11,3 C 8,3 C 48 % 1018,5 hPa 0,0 l/m 2 min 0 min 140 W/m 20,9 km/h (4 Bft)
28.04.2015 19:24 11,3 C 8,3 C 48 % 1018,6 hPa 0,0 l/m 0 min 0 min 101 W/m 35,6 km/h (5 Bft)
28.04.2015 19:26 11,2 C 8,3 C 48 % 1018,6 hPa 0,0 l/m 0 min 0 min 68 W/m 16,7 km/h (3 Bft)
28.04.2015 19:28 11,2 C 8,3 C 48 % 1018,7 hPa 0,0 l/m 0 min 0 min 57 W/m 16,7 km/h (3 Bft)
28.04.2015 19:30 11,2 C 8,3 C 48 % 1018,7 hPa 0,0 l/m 0 min 0 min 53 W/m 23,0 km/h (4 Bft)
28.04.2015 19:32 11,1 C 8,3 C 48 % 1018,7 hPa 0,0 l/m 0 min 0 min 47 W/m 16,7 km/h (3 Bft)
28.04.2015 19:34 11,1 C 8,3 C 48 % 1018,7 hPa 0,0 l/m 0 min 0 min 55 W/m 23,0 km/h (4 Bft)
28.04.2015 19:36 11,1 C 8,3 C 48 % 1018,7 hPa 0,0 l/m 0 min 0 min 57 W/m 27,2 km/h (4 Bft)
28.04.2015 19:38 11,1 C 8,3 C 47 % 1018,7 hPa 0,0 l/m 0 min 0 min 46 W/m 25,1 km/h (4 Bft)
28.04.2015 19:40 11,0 C 8,3 C 47 % 1018,7 hPa 0,0 l/m 0 min 0 min 73 W/m 23,0 km/h (4 Bft)
28.04.2015 19:42 10,9 C 8,3 C 47 % 1018,8 hPa 0,0 l/m 2 min 0 min 90 W/m 27,2 km/h (4 Bft)
28.04.2015 19:44 10,9 C 7,8 C 47 % 1018,8 hPa 0,0 l/m 2 min 0 min 84 W/m 18,8 km/h (3 Bft)
28.04.2015 19:46 10,9 C 7,8 C 47 % 1018,8 hPa 0,0 l/m 2 min 0 min 81 W/m 20,9 km/h (4 Bft)
28.04.2015 19:48 10,8 C 7,8 C 46 % 1018,8 hPa 0,0 l/m 2 min 0 min 76 W/m 27,2 km/h (4 Bft)
28.04.2015 19:50 10,8 C 7,8 C 47 % 1018,8 hPa 0,0 l/m 2 min 0 min 71 W/m 31,4 km/h (5 Bft)
28.04.2015 19:52 10,7 C 7,8 C 45 % 1018,9 hPa 0,0 l/m 0 min 0 min 66 W/m 23,0 km/h (4 Bft)
28.04.2015 19:54 10,6 C 7,8 C 45 % 1018,9 hPa 0,0 l/m 0 min 0 min 62 W/m 23,0 km/h (4 Bft)
28.04.2015 19:56 10,6 C 7,8 C 46 % 1018,9 hPa 0,0 l/m 0 min 0 min 59 W/m 25,1 km/h (4 Bft)
28.04.2015 19:58 10,5 C 7,8 C 46 % 1018,9 hPa 0,0 l/m 0 min 0 min 46 W/m 18,8 km/h (3 Bft)
28.04.2015 20:00 10,4 C 7,8 C 45 % 1018,9 hPa 0,0 l/m 0 min 0 min 39 W/m 29,3 km/h (5 Bft)
28.04.2015 20:02 10,4 C 7,8 C 45 % 1018,9 hPa 0,0 l/m 0 min 0 min 34 W/m 14,6 km/h (3 Bft)
28.04.2015 20:04 10,3 C 7,8 C 44 % 1019,0 hPa 0,0 l/m 0 min 0 min 37 W/m 31,4 km/h (5 Bft)
28.04.2015 20:06 10,3 C 7,2 C 45 % 1019,0 hPa 0,0 l/m 0 min 0 min 37 W/m 16,7 km/h (3 Bft)
28.04.2015 20:08 10,2 C 7,2 C 45 % 1019,0 hPa 0,0 l/m 0 min 0 min 35 W/m 18,8 km/h (3 Bft)
28.04.2015 20:10 10,2 C 7,2 C 45 % 1019,1 hPa 0,0 l/m 0 min 0 min 32 W/m 16,7 km/h (3 Bft)
28.04.2015 20:12 10,1 C 7,2 C 46 % 1019,1 hPa 0,0 l/m 0 min 0 min 29 W/m 16,7 km/h (3 Bft)
28.04.2015 20:14 10,1 C 7,2 C 47 % 1019,1 hPa 0,0 l/m 0 min 0 min 27 W/m 18,8 km/h (3 Bft)
28.04.2015 20:16 10,0 C 7,2 C 47 % 1019,1 hPa 0,0 l/m 0 min 0 min 25 W/m 23,0 km/h (4 Bft)
28.04.2015 20:18 9,9 C 7,2 C 46 % 1019,2 hPa 0,0 l/m 0 min 0 min 24 W/m 25,1 km/h (4 Bft)
28.04.2015 20:20 9,9 C 7,2 C 45 % 1019,1 hPa 0,0 l/m 0 min 0 min 23 W/m 16,7 km/h (3 Bft)
28.04.2015 20:22 9,8 C 7,2 C 46 % 1019,2 hPa 0,0 l/m 0 min 0 min 22 W/m 12,6 km/h (3 Bft)
28.04.2015 20:24 9,8 C 7,2 C 46 % 1019,2 hPa 0,0 l/m 0 min 0 min 21 W/m 23,0 km/h (4 Bft)
28.04.2015 20:26 9,8 C 7,2 C 46 % 1019,2 hPa 0,0 l/m 0 min 0 min 20 W/m 20,9 km/h (4 Bft)
28.04.2015 20:28 9,7 C 7,2 C 46 % 1019,2 hPa 0,0 l/m 0 min 0 min 19 W/m 20,9 km/h (4 Bft)
28.04.2015 20:30 9,7 C 7,2 C 46 % 1019,3 hPa 0,0 l/m 2 min 0 min 19 W/m 10,5 km/h (2 Bft)
28.04.2015 20:32 9,6 C 6,7 C 47 % 1019,3 hPa 0,0 l/m 0 min 0 min 18 W/m 10,5 km/h (2 Bft)
28.04.2015 20:34 9,6 C 6,7 C 47 % 1019,3 hPa 0,0 l/m 0 min 0 min 16 W/m 12,6 km/h (3 Bft)
28.04.2015 20:36 9,5 C 6,7 C 47 % 1019,4 hPa 0,0 l/m 0 min 0 min 16 W/m 6,3 km/h (2 Bft)
28.04.2015 20:38 9,4 C 6,7 C 48 % 1019,4 hPa 0,0 l/m 0 min 0 min 14 W/m 12,6 km/h (3 Bft)
28.04.2015 20:40 9,4 C 6,7 C 48 % 1019,4 hPa 0,0 l/m 0 min 0 min 13 W/m 10,5 km/h (2 Bft)
28.04.2015 20:42 9,4 C 6,7 C 48 % 1019,4 hPa 0,0 l/m 0 min 0 min 12 W/m 8,4 km/h (2 Bft)
28.04.2015 20:44 9,3 C 6,7 C 48 % 1019,5 hPa 0,0 l/m 0 min 0 min 11 W/m 10,5 km/h (2 Bft)
28.04.2015 20:46 9,3 C 6,7 C 48 % 1019,5 hPa 0,0 l/m 0 min 0 min 11 W/m 8,4 km/h (2 Bft)
28.04.2015 20:48 9,2 C 6,7 C 49 % 1019,5 hPa 0,0 l/m 0 min 0 min 10 W/m 10,5 km/h (2 Bft)
28.04.2015 20:50 9,2 C 6,7 C 49 % 1019,5 hPa 0,0 l/m 0 min 0 min 8 W/m 8,4 km/h (2 Bft)
28.04.2015 20:52 9,1 C 6,1 C 50 % 1019,5 hPa 0,0 l/m 0 min 0 min 7 W/m 8,4 km/h (2 Bft)
28.04.2015 20:54 9,1 C 6,1 C 50 % 1019,5 hPa 0,0 l/m 0 min 0 min 7 W/m 6,3 km/h (2 Bft)
28.04.2015 20:56 9,0 C 6,1 C 50 % 1019,5 hPa 0,0 l/m 0 min 0 min 5 W/m 6,3 km/h (2 Bft)
28.04.2015 20:58 9,0 C 6,1 C 50 % 1019,5 hPa 0,0 l/m 0 min 0 min 5 W/m 6,3 km/h (2 Bft)
28.04.2015 21:00 8,9 C 6,1 C 50 % 1019,5 hPa 0,0 l/m 0 min 0 min 4 W/m 6,3 km/h (2 Bft)
28.04.2015 21:02 8,9 C 5,6 C 50 % 1019,6 hPa 0,0 l/m 0 min 0 min 0 W/m 6,3 km/h (2 Bft)
28.04.2015 21:04 8,8 C 5,6 C 51 % 1019,6 hPa 0,0 l/m 0 min 0 min 0 W/m 6,3 km/h (2 Bft)
28.04.2015 21:06 8,7 C 5,6 C 51 % 1019,7 hPa 0,0 l/m 0 min 0 min 0 W/m 4,2 km/h (1 Bft)
28.04.2015 21:08 8,7 C 5,6 C 51 % 1019,6 hPa 0,0 l/m 0 min 0 min 0 W/m 6,3 km/h (2 Bft)
28.04.2015 21:10 8,6 C 5,6 C 51 % 1019,6 hPa 0,0 l/m 0 min 0 min 0 W/m 4,2 km/h (1 Bft)
28.04.2015 21:12 8,5 C 5,6 C 51 % 1019,6 hPa 0,0 l/m 0 min 0 min 0 W/m 4,2 km/h (1 Bft)
28.04.2015 21:14 8,4 C 5,6 C 52 % 1019,7 hPa 0,0 l/m 0 min 0 min 0 W/m 4,2 km/h (1 Bft)
28.04.2015 21:16 8,4 C 5,6 C 52 % 1019,7 hPa 0,0 l/m 0 min 0 min 0 W/m 4,2 km/h (1 Bft)
28.04.2015 21:18 8,3 C 5,0 C 52 % 1019,8 hPa 0,0 l/m 0 min 0 min 0 W/m 2,1 km/h (1 Bft)
28.04.2015 21:20 8,2 C 5,0 C 53 % 1019,7 hPa 0,0 l/m 0 min 0 min 0 W/m 2,1 km/h (1 Bft)
28.04.2015 21:22 8,1 C 5,0 C 53 % 1019,8 hPa 0,0 l/m 0 min 0 min 0 W/m 0,0 km/h (0 Bft)
28.04.2015 21:24 8,1 C 5,0 C 54 % 1019,9 hPa 0,0 l/m 0 min 0 min 0 W/m 2,1 km/h (1 Bft)
28.04.2015 21:26 7,9 C 5,0 C 54 % 1019,9 hPa 0,0 l/m 0 min 0 min 0 W/m 2,1 km/h (1 Bft)
28.04.2015 21:28 7,8 C 5,0 C 55 % 1019,9 hPa 0,0 l/m 0 min 0 min 0 W/m 2,1 km/h (1 Bft)
28.04.2015 21:30 7,8 C 5,0 C 55 % 1020,0 hPa 0,0 l/m 0 min 0 min 0 W/m 2,1 km/h (1 Bft)
28.04.2015 21:32 7,7 C 5,0 C 55 % 1020,0 hPa 0,0 l/m 0 min 0 min 0 W/m 2,1 km/h (1 Bft)
28.04.2015 21:34 7,6 C 5,0 C 56 % 1020,0 hPa 0,0 l/m 0 min 0 min 0 W/m 4,2 km/h (1 Bft)
28.04.2015 21:36 7,6 C 5,0 C 57 % 1020,0 hPa 0,0 l/m 0 min 0 min 0 W/m 2,1 km/h (1 Bft)
28.04.2015 21:38 7,4 C 5,0 C 57 % 1020,1 hPa 0,0 l/m 0 min 0 min 0 W/m 2,1 km/h (1 Bft)
28.04.2015 21:40 7,4 C 5,0 C 57 % 1020,1 hPa 0,0 l/m 0 min 0 min 0 W/m 4,2 km/h (1 Bft)
28.04.2015 21:42 7,3 C 5,0 C 58 % 1020,0 hPa 0,0 l/m 0 min 0 min 0 W/m 4,2 km/h (1 Bft)
28.04.2015 21:44 7,2 C 5,0 C 58 % 1020,1 hPa 0,0 l/m 0 min 0 min 0 W/m 4,2 km/h (1 Bft)
28.04.2015 21:46 7,2 C 5,0 C 58 % 1020,0 hPa 0,0 l/m 0 min 0 min 0 W/m 4,2 km/h (1 Bft)
28.04.2015 21:48 7,1 C 5,0 C 59 % 1020,1 hPa 0,0 l/m 0 min 0 min 0 W/m 2,1 km/h (1 Bft)
28.04.2015 21:50 7,0 C 5,0 C 59 % 1020,1 hPa 0,0 l/m 0 min 0 min 0 W/m 6,3 km/h (2 Bft)
28.04.2015 21:52 6,9 C 5,0 C 59 % 1020,1 hPa 0,0 l/m 0 min 0 min 0 W/m 4,2 km/h (1 Bft)
28.04.2015 21:54 6,9 C 4,4 C 60 % 1020,1 hPa 0,0 l/m 0 min 0 min 0 W/m 2,1 km/h (1 Bft)
28.04.2015 21:56 6,8 C 4,4 C 60 % 1020,1 hPa 0,0 l/m 0 min 0 min 0 W/m 4,2 km/h (1 Bft)
28.04.2015 21:58 6,8 C 4,4 C 60 % 1020,1 hPa 0,0 l/m 0 min 0 min 0 W/m 4,2 km/h (1 Bft)
28.04.2015 22:00 6,7 C 4,4 C 60 % 1020,1 hPa 0,0 l/m 0 min 0 min 0 W/m 4,2 km/h (1 Bft)
28.04.2015 22:02 6,6 C 4,4 C 60 % 1020,1 hPa 0,0 l/m 0 min 0 min 0 W/m 4,2 km/h (1 Bft)
28.04.2015 22:04 6,6 C 4,4 C 60 % 1020,1 hPa 0,0 l/m 0 min 0 min 0 W/m 2,1 km/h (1 Bft)
28.04.2015 22:06 6,5 C 4,4 C 60 % 1020,1 hPa 0,0 l/m 0 min 0 min 0 W/m 2,1 km/h (1 Bft)
28.04.2015 22:08 6,4 C 4,4 C 61 % 1020,1 hPa 0,0 l/m 0 min 0 min 0 W/m 2,1 km/h (1 Bft)
28.04.2015 22:10 6,4 C 4,4 C 61 % 1020,1 hPa 0,0 l/m 0 min 0 min 0 W/m 4,2 km/h (1 Bft)
28.04.2015 22:12 6,4 C 4,4 C 61 % 1020,1 hPa 0,0 l/m 0 min 0 min 0 W/m 2,1 km/h (1 Bft)
28.04.2015 22:14 6,3 C 4,4 C 61 % 1020,1 hPa 0,0 l/m 0 min 0 min 0 W/m 2,1 km/h (1 Bft)
28.04.2015 22:16 6,2 C 4,4 C 61 % 1020,1 hPa 0,0 l/m 0 min 0 min 0 W/m 2,1 km/h (1 Bft)
28.04.2015 22:18 6,2 C 4,4 C 62 % 1020,1 hPa 0,0 l/m 0 min 0 min 0 W/m 2,1 km/h (1 Bft)
28.04.2015 22:20 6,1 C 4,4 C 62 % 1020,2 hPa 0,0 l/m 0 min 0 min 0 W/m 2,1 km/h (1 Bft)
28.04.2015 22:22 6,1 C 4,4 C 63 % 1020,1 hPa 0,0 l/m 0 min 0 min 0 W/m 2,1 km/h (1 Bft)
28.04.2015 22:24 6,0 C 4,4 C 64 % 1020,2 hPa 0,0 l/m 0 min 0 min 0 W/m 2,1 km/h (1 Bft)
28.04.2015 22:26 5,9 C 4,4 C 64 % 1020,3 hPa 0,0 l/m 0 min 0 min 0 W/m 2,1 km/h (1 Bft)
28.04.2015 22:28 5,9 C 4,4 C 64 % 1020,3 hPa 0,0 l/m 0 min 0 min 0 W/m 2,1 km/h (1 Bft)
28.04.2015 22:30 5,8 C 4,4 C 65 % 1020,3 hPa 0,0 l/m 0 min 0 min 0 W/m 2,1 km/h (1 Bft)
28.04.2015 22:32 5,8 C 4,4 C 65 % 1020,3 hPa 0,0 l/m 0 min 0 min 0 W/m 2,1 km/h (1 Bft)
28.04.2015 22:34 5,8 C 4,4 C 66 % 1020,4 hPa 0,0 l/m 0 min 0 min 0 W/m 2,1 km/h (1 Bft)
28.04.2015 22:36 5,7 C 4,4 C 66 % 1020,3 hPa 0,0 l/m 0 min 0 min 0 W/m 2,1 km/h (1 Bft)
28.04.2015 22:38 5,7 C 3,9 C 67 % 1020,4 hPa 0,0 l/m 0 min 0 min 0 W/m 2,1 km/h (1 Bft)
28.04.2015 22:40 5,6 C 3,9 C 67 % 1020,4 hPa 0,0 l/m 0 min 0 min 0 W/m 2,1 km/h (1 Bft)
28.04.2015 22:42 5,6 C 3,9 C 68 % 1020,4 hPa 0,0 l/m 0 min 0 min 0 W/m 2,1 km/h (1 Bft)
28.04.2015 22:44 5,5 C 3,9 C 68 % 1020,4 hPa 0,0 l/m 0 min 0 min 0 W/m 0,0 km/h (0 Bft)
28.04.2015 22:46 5,4 C 3,9 C 68 % 1020,3 hPa 0,0 l/m 0 min 0 min 0 W/m 0,0 km/h (0 Bft)
28.04.2015 22:48 5,4 C 3,9 C 69 % 1020,4 hPa 0,0 l/m 0 min 0 min 0 W/m 0,0 km/h (0 Bft)
28.04.2015 22:50 5,4 C 3,9 C 69 % 1020,4 hPa 0,0 l/m 0 min 0 min 0 W/m 2,1 km/h (1 Bft)
28.04.2015 22:52 5,3 C 3,9 C 69 % 1020,4 hPa 0,0 l/m 0 min 0 min 0 W/m 2,1 km/h (1 Bft)
28.04.2015 22:54 5,3 C 3,9 C 69 % 1020,5 hPa 0,0 l/m 0 min 0 min 0 W/m 2,1 km/h (1 Bft)
28.04.2015 22:56 5,3 C 3,9 C 70 % 1020,5 hPa 0,0 l/m 0 min 0 min 0 W/m 2,1 km/h (1 Bft)
28.04.2015 22:58 5,2 C 3,9 C 70 % 1020,5 hPa 0,0 l/m 0 min 0 min 0 W/m 2,1 km/h (1 Bft)
28.04.2015 23:00 5,2 C 3,9 C 71 % 1020,5 hPa 0,0 l/m 0 min 0 min 0 W/m 2,1 km/h (1 Bft)
28.04.2015 23:02 5,1 C 3,9 C 71 % 1020,5 hPa 0,0 l/m 0 min 0 min 0 W/m 2,1 km/h (1 Bft)
28.04.2015 23:04 5,1 C 3,9 C 71 % 1020,5 hPa 0,0 l/m 0 min 0 min 0 W/m 2,1 km/h (1 Bft)
28.04.2015 23:06 5,0 C 3,9 C 71 % 1020,5 hPa 0,0 l/m 0 min 0 min 0 W/m 2,1 km/h (1 Bft)
28.04.2015 23:08 5,0 C 3,9 C 71 % 1020,5 hPa 0,0 l/m 0 min 0 min 0 W/m 4,2 km/h (1 Bft)
28.04.2015 23:10 4,9 C 3,9 C 71 % 1020,5 hPa 0,0 l/m 0 min 0 min 0 W/m 4,2 km/h (1 Bft)
28.04.2015 23:12 4,9 C 3,9 C 72 % 1020,6 hPa 0,0 l/m 0 min 0 min 0 W/m 2,1 km/h (1 Bft)
28.04.2015 23:14 4,9 C 3,9 C 72 % 1020,5 hPa 0,0 l/m 0 min 0 min 0 W/m 2,1 km/h (1 Bft)
28.04.2015 23:16 4,8 C 3,9 C 72 % 1020,5 hPa 0,0 l/m 0 min 0 min 0 W/m 2,1 km/h (1 Bft)
28.04.2015 23:18 4,8 C 3,9 C 73 % 1020,5 hPa 0,0 l/m 0 min 0 min 0 W/m 2,1 km/h (1 Bft)
28.04.2015 23:20 4,7 C 3,9 C 73 % 1020,5 hPa 0,0 l/m 0 min 0 min 0 W/m 2,1 km/h (1 Bft)
28.04.2015 23:22 4,7 C 3,9 C 73 % 1020,5 hPa 0,0 l/m 0 min 0 min 0 W/m 2,1 km/h (1 Bft)
28.04.2015 23:24 4,7 C 3,9 C 74 % 1020,5 hPa 0,0 l/m 0 min 0 min 0 W/m 2,1 km/h (1 Bft)
28.04.2015 23:26 4,6 C 3,9 C 74 % 1020,6 hPa 0,0 l/m 0 min 0 min 0 W/m 2,1 km/h (1 Bft)
28.04.2015 23:28 4,6 C 3,9 C 74 % 1020,5 hPa 0,0 l/m 0 min 0 min 0 W/m 2,1 km/h (1 Bft)
28.04.2015 23:30 4,5 C 3,3 C 74 % 1020,6 hPa 0,0 l/m 0 min 0 min 0 W/m 2,1 km/h (1 Bft)
28.04.2015 23:32 4,4 C 3,3 C 74 % 1020,6 hPa 0,0 l/m 0 min 0 min 0 W/m 2,1 km/h (1 Bft)
28.04.2015 23:34 4,4 C 3,3 C 74 % 1020,6 hPa 0,0 l/m 0 min 0 min 0 W/m 2,1 km/h (1 Bft)
28.04.2015 23:36 4,4 C 3,3 C 74 % 1020,6 hPa 0,0 l/m 0 min 0 min 0 W/m 2,1 km/h (1 Bft)
28.04.2015 23:38 4,3 C 3,3 C 74 % 1020,6 hPa 0,0 l/m 0 min 0 min 0 W/m 2,1 km/h (1 Bft)
28.04.2015 23:40 4,3 C 3,3 C 75 % 1020,6 hPa 0,0 l/m 0 min 0 min 0 W/m 2,1 km/h (1 Bft)
28.04.2015 23:42 4,2 C 3,3 C 75 % 1020,6 hPa 0,0 l/m 0 min 0 min 0 W/m 2,1 km/h (1 Bft)
28.04.2015 23:44 4,2 C 3,3 C 75 % 1020,6 hPa 0,0 l/m 0 min 0 min 0 W/m 2,1 km/h (1 Bft)
28.04.2015 23:46 4,2 C 3,3 C 75 % 1020,6 hPa 0,0 l/m 0 min 0 min 0 W/m 2,1 km/h (1 Bft)
28.04.2015 23:48 4,1 C 3,3 C 75 % 1020,6 hPa 0,0 l/m 0 min 0 min 0 W/m 2,1 km/h (1 Bft)
28.04.2015 23:50 4,1 C 3,3 C 76 % 1020,6 hPa 0,0 l/m 0 min 0 min 0 W/m 2,1 km/h (1 Bft)
28.04.2015 23:52 4,0 C 3,3 C 76 % 1020,6 hPa 0,0 l/m 0 min 0 min 0 W/m 2,1 km/h (1 Bft)
28.04.2015 23:54 4,0 C 3,3 C 76 % 1020,5 hPa 0,0 l/m 0 min 0 min 0 W/m 2,1 km/h (1 Bft)
28.04.2015 23:56 3,9 C 3,3 C 76 % 1020,6 hPa 0,0 l/m 0 min 0 min 0 W/m 2,1 km/h (1 Bft)
28.04.2015 23:58 3,9 C 3,3 C 76 % 1020,6 hPa 0,0 l/m 0 min 0 min 0 W/m 2,1 km/h (1 Bft)
_ Min-Zeit 07:14 05:32 20:04 00:00 - - - - 06:10
Minimum _ 0,8 C 2,2 C 44 % 1010,1 hPa - - - - 0,0 km/h (0 Bft)
_ Max-Zeit 15:32 13:18 09:04 23:12 00:00 07:10 13:30 13:20 14:40
Maximum _ 14,0 C 12,2 C 94 % 1020,6 hPa 0,0 l/m 2 min 2 min 1022 W/m 48,1 km/h
W-SW (6 Bft)
Durchschnitt _ 7,7 C 6,5 C 69 % 1015,2 hPa #0,0 l/m #9:42 h #22 min. 366 W/m 14,3 km/h (3 Bft)
© 2015 W. Hausmann